Wetterdaten: Mittwoch, 25.04.2018
Datum Zeit Temp. Aussen Temp. o. S. +5cm Feuchte Auss BlattFeu 1 Luftdruck Regen Sonnenschein Regendauer Solar Windben Empfang
25.04.2018 00:00 14,5 C 13,9 C 12,8 C 83 % 0 lf 1010,0 hPa 0,0 l/m 0 min 0 min 0 W/m 4,5 km/h (1 Bft) 95,74 %
25.04.2018 00:02 14,5 C 13,9 C 12,8 C 83 % 0 lf 1010,0 hPa 0,0 l/m 0 min 0 min 0 W/m 4,5 km/h (1 Bft) 89,47 %
25.04.2018 00:04 14,5 C 13,9 C 12,8 C 83 % 0 lf 1009,9 hPa 0,0 l/m 0 min 0 min 0 W/m 2,3 km/h (1 Bft) 95,74 %
25.04.2018 00:08 14,5 C 13,9 C 12,8 C 83 % 0 lf 1009,9 hPa 0,0 l/m 0 min 0 min 0 W/m 4,5 km/h (1 Bft) 93,07 %
25.04.2018 00:10 14,4 C 13,9 C 12,8 C 83 % 0 lf 1009,8 hPa 0,0 l/m 0 min 0 min 0 W/m 4,5 km/h (1 Bft) 95,74 %
25.04.2018 00:12 14,5 C 13,9 C 12,8 C 83 % 0 lf 1009,8 hPa 0,0 l/m 0 min 0 min 0 W/m 2,3 km/h (1 Bft) 93,62 %
25.04.2018 00:14 14,4 C 13,9 C 12,8 C 83 % 0 lf 1009,8 hPa 0,0 l/m 0 min 0 min 0 W/m 4,5 km/h (1 Bft) 93,48 %
25.04.2018 00:16 14,5 C 13,9 C 12,8 C 83 % 0 lf 1009,7 hPa 0,0 l/m 0 min 0 min 0 W/m 2,3 km/h (1 Bft) 91,49 %
25.04.2018 00:18 14,4 C 13,9 C 12,8 C 83 % 0 lf 1009,5 hPa 0,0 l/m 0 min 0 min 0 W/m 4,5 km/h (1 Bft) 93,62 %
25.04.2018 00:20 14,5 C 13,9 C 12,8 C 83 % 0 lf 1009,4 hPa 0,0 l/m 0 min 0 min 0 W/m 4,5 km/h (1 Bft) 93,62 %
25.04.2018 00:22 14,4 C 13,9 C 12,8 C 83 % 0 lf 1009,4 hPa 0,0 l/m 0 min 0 min 0 W/m 4,5 km/h (1 Bft) 91,49 %
25.04.2018 00:24 14,4 C 13,9 C 12,8 C 83 % 0 lf 1009,4 hPa 0,0 l/m 0 min 0 min 0 W/m 4,5 km/h (1 Bft) 91,49 %
25.04.2018 00:26 14,4 C 13,9 C 12,8 C 84 % 0 lf 1009,5 hPa 0,0 l/m 0 min 0 min 0 W/m 4,5 km/h (1 Bft) 91,30 %
25.04.2018 00:28 14,5 C 13,9 C 12,8 C 84 % 0 lf 1009,5 hPa 0,0 l/m 0 min 0 min 0 W/m 4,5 km/h (1 Bft) 93,62 %
25.04.2018 00:30 14,4 C 13,9 C 12,8 C 84 % 0 lf 1009,4 hPa 0,0 l/m 0 min 0 min 0 W/m 4,5 km/h (1 Bft) 93,62 %
25.04.2018 00:32 14,4 C 13,9 C 12,8 C 84 % 0 lf 1009,3 hPa 0,0 l/m 0 min 0 min 0 W/m 4,5 km/h (1 Bft) 92,68 %
25.04.2018 00:34 14,5 C 13,9 C 12,8 C 84 % 0 lf 1009,3 hPa 0,0 l/m 0 min 0 min 0 W/m 2,3 km/h (1 Bft) 93,62 %
25.04.2018 00:36 14,4 C 13,9 C 12,8 C 84 % 0 lf 1009,2 hPa 0,0 l/m 0 min 0 min 0 W/m 4,5 km/h (1 Bft) 91,49 %
25.04.2018 00:38 14,4 C 13,9 C 12,8 C 84 % 0 lf 1009,2 hPa 0,0 l/m 0 min 0 min 0 W/m 4,5 km/h (1 Bft) 95,74 %
25.04.2018 00:40 14,4 C 13,9 C 12,8 C 84 % 0 lf 1009,2 hPa 0,0 l/m 0 min 0 min 0 W/m 4,5 km/h (1 Bft) 95,74 %
25.04.2018 00:42 14,4 C 13,9 C 12,8 C 84 % 0 lf 1009,1 hPa 0,0 l/m 0 min 0 min 0 W/m 4,5 km/h (1 Bft) 95,65 %
25.04.2018 00:44 14,4 C 13,9 C 12,8 C 84 % 0 lf 1009,1 hPa 0,0 l/m 0 min 0 min 0 W/m 4,5 km/h (1 Bft) 93,62 %
25.04.2018 00:46 14,4 C 13,9 C 12,8 C 84 % 0 lf 1009,1 hPa 0,0 l/m 0 min 0 min 0 W/m 4,5 km/h (1 Bft) 91,49 %
25.04.2018 00:48 14,4 C 13,9 C 12,8 C 84 % 0 lf 1009,1 hPa 0,0 l/m 0 min 0 min 0 W/m 4,5 km/h (1 Bft) 95,74 %
25.04.2018 00:50 14,4 C 13,9 C 12,8 C 84 % 0 lf 1009,0 hPa 0,0 l/m 0 min 0 min 0 W/m 6,8 km/h (2 Bft) 97,87 %
25.04.2018 00:52 14,4 C 13,9 C 12,8 C 85 % 0 lf 1009,0 hPa 0,0 l/m 0 min 0 min 0 W/m 9,0 km/h (2 Bft) 91,49 %
25.04.2018 00:54 14,4 C 13,9 C 12,8 C 85 % 0 lf 1009,0 hPa 0,0 l/m 0 min 0 min 0 W/m 9,0 km/h (2 Bft) 95,65 %
25.04.2018 00:56 14,4 C 13,9 C 12,8 C 85 % 0 lf 1008,8 hPa 0,0 l/m 0 min 0 min 0 W/m 11,3 km/h (2 Bft) 97,87 %
25.04.2018 00:58 14,4 C 13,9 C 12,8 C 85 % 0 lf 1008,8 hPa 0,0 l/m 0 min 0 min 0 W/m 11,3 km/h (2 Bft) 95,74 %
25.04.2018 01:00 14,4 C 13,9 C 12,8 C 85 % 0 lf 1008,8 hPa 0,0 l/m 0 min 0 min 0 W/m 9,0 km/h (2 Bft) 97,87 %
25.04.2018 01:02 14,4 C 13,9 C 12,8 C 85 % 0 lf 1008,8 hPa 0,0 l/m 0 min 0 min 0 W/m 13,5 km/h (3 Bft) 95,74 %
25.04.2018 01:04 14,4 C 13,9 C 12,8 C 85 % 0 lf 1008,8 hPa 0,0 l/m 0 min 0 min 0 W/m 13,5 km/h (3 Bft) 95,74 %
25.04.2018 01:08 14,4 C 14,4 C 12,8 C 85 % 0 lf 1008,7 hPa 0,0 l/m 0 min 0 min 0 W/m 13,5 km/h (3 Bft) 98,92 %
25.04.2018 01:10 14,4 C 14,4 C 12,8 C 85 % 0 lf 1008,7 hPa 0,0 l/m 0 min 0 min 0 W/m 11,3 km/h (2 Bft) 100,00 %
25.04.2018 01:12 14,4 C 14,4 C 12,8 C 85 % 0 lf 1008,7 hPa 0,0 l/m 0 min 0 min 0 W/m 13,5 km/h (3 Bft) 100,00 %
25.04.2018 01:14 14,4 C 14,4 C 12,8 C 85 % 0 lf 1008,7 hPa 0,0 l/m 0 min 0 min 0 W/m 15,8 km/h (3 Bft) 100,00 %
25.04.2018 01:16 14,4 C 14,4 C 12,8 C 85 % 0 lf 1008,6 hPa 0,0 l/m 0 min 0 min 0 W/m 11,3 km/h (2 Bft) 95,74 %
25.04.2018 01:18 14,4 C 14,4 C 13,3 C 85 % 0 lf 1008,6 hPa 0,0 l/m 0 min 0 min 0 W/m 15,8 km/h (3 Bft) 100,00 %
25.04.2018 01:20 14,5 C 14,4 C 13,3 C 85 % 0 lf 1008,5 hPa 0,0 l/m 0 min 0 min 0 W/m 11,3 km/h (2 Bft) 95,74 %
25.04.2018 01:22 14,5 C 14,4 C 13,3 C 85 % 0 lf 1008,5 hPa 0,0 l/m 0 min 0 min 0 W/m 9,0 km/h (2 Bft) 100,00 %
25.04.2018 01:24 14,5 C 14,4 C 13,3 C 85 % 0 lf 1008,5 hPa 0,0 l/m 0 min 0 min 0 W/m 9,0 km/h (2 Bft) 97,87 %
25.04.2018 01:26 14,5 C 14,4 C 12,8 C 85 % 0 lf 1008,5 hPa 0,0 l/m 0 min 0 min 0 W/m 18,0 km/h (3 Bft) 100,00 %
25.04.2018 01:28 14,5 C 14,4 C 13,3 C 85 % 0 lf 1008,5 hPa 0,0 l/m 0 min 0 min 0 W/m 9,0 km/h (2 Bft) 100,00 %
25.04.2018 01:30 14,6 C 14,4 C 13,3 C 85 % 0 lf 1008,5 hPa 0,0 l/m 0 min 0 min 0 W/m 13,5 km/h (3 Bft) 97,83 %
25.04.2018 01:32 14,6 C 14,4 C 13,3 C 85 % 0 lf 1008,5 hPa 0,0 l/m 0 min 0 min 0 W/m 13,5 km/h (3 Bft) 93,75 %
25.04.2018 01:34 14,6 C 14,4 C 13,3 C 85 % 0 lf 1008,4 hPa 0,0 l/m 0 min 0 min 0 W/m 9,0 km/h (2 Bft) 97,87 %
25.04.2018 01:36 14,6 C 14,4 C 13,3 C 84 % 0 lf 1008,4 hPa 0,0 l/m 0 min 0 min 0 W/m 22,5 km/h (4 Bft) 95,74 %
25.04.2018 01:38 14,6 C 14,4 C 13,3 C 84 % 0 lf 1008,4 hPa 0,0 l/m 0 min 0 min 0 W/m 13,5 km/h (3 Bft) 95,74 %
25.04.2018 01:40 14,6 C 14,4 C 13,3 C 84 % 0 lf 1008,3 hPa 0,0 l/m 0 min 0 min 0 W/m 9,0 km/h (2 Bft) 97,87 %
25.04.2018 01:42 14,7 C 14,4 C 13,3 C 84 % 0 lf 1008,3 hPa 0,0 l/m 0 min 0 min 0 W/m 11,3 km/h (2 Bft) 97,83 %
25.04.2018 01:44 14,7 C 14,4 C 13,3 C 84 % 0 lf 1008,2 hPa 0,0 l/m 0 min 0 min 0 W/m 9,0 km/h (2 Bft) 93,62 %
25.04.2018 01:46 14,7 C 14,4 C 13,3 C 84 % 0 lf 1008,2 hPa 0,0 l/m 0 min 0 min 0 W/m 15,8 km/h (3 Bft) 97,87 %
25.04.2018 01:48 14,7 C 15,0 C 13,3 C 84 % 0 lf 1008,2 hPa 0,0 l/m 0 min 0 min 0 W/m 18,0 km/h (3 Bft) 95,74 %
25.04.2018 01:50 14,8 C 15,0 C 13,3 C 83 % 0 lf 1008,1 hPa 0,0 l/m 0 min 0 min 0 W/m 20,3 km/h (4 Bft) 97,87 %
25.04.2018 01:52 14,8 C 15,0 C 13,3 C 83 % 0 lf 1008,0 hPa 0,0 l/m 0 min 0 min 0 W/m 13,5 km/h (3 Bft) 95,65 %
25.04.2018 01:54 14,8 C 15,0 C 13,9 C 83 % 0 lf 1008,2 hPa 0,0 l/m 0 min 0 min 0 W/m 22,5 km/h (4 Bft) 97,87 %
25.04.2018 01:56 14,8 C 15,0 C 13,9 C 82 % 0 lf 1008,0 hPa 0,0 l/m 0 min 0 min 0 W/m 11,3 km/h (2 Bft) 93,62 %
25.04.2018 01:58 14,8 C 15,0 C 13,9 C 82 % 0 lf 1008,1 hPa 0,0 l/m 0 min 0 min 0 W/m 18,0 km/h (3 Bft) 95,74 %
25.04.2018 02:00 14,9 C 15,0 C 13,9 C 82 % 0 lf 1008,0 hPa 0,0 l/m 0 min 0 min 0 W/m 15,8 km/h (3 Bft) 95,74 %
25.04.2018 02:02 14,9 C 15,0 C 13,9 C 82 % 0 lf 1008,0 hPa 0,0 l/m 0 min 0 min 0 W/m 15,8 km/h (3 Bft) 95,74 %
25.04.2018 02:04 14,9 C 15,0 C 13,9 C 81 % 0 lf 1008,0 hPa 0,0 l/m 0 min 0 min 0 W/m 22,5 km/h (4 Bft) 97,83 %
25.04.2018 02:06 15,0 C 15,0 C 13,9 C 81 % 0 lf 1007,9 hPa 0,0 l/m 0 min 0 min 0 W/m 18,0 km/h (3 Bft) 93,62 %
25.04.2018 02:08 15,1 C 15,0 C 13,9 C 80 % 0 lf 1007,8 hPa 0,0 l/m 0 min 0 min 0 W/m 29,3 km/h (5 Bft) 95,74 %
25.04.2018 02:10 15,1 C 15,0 C 13,9 C 80 % 0 lf 1007,7 hPa 0,0 l/m 0 min 0 min 0 W/m 15,8 km/h (3 Bft) 97,87 %
25.04.2018 02:12 15,1 C 15,0 C 13,9 C 80 % 0 lf 1007,8 hPa 0,0 l/m 0 min 0 min 0 W/m 22,5 km/h (4 Bft) 93,62 %
25.04.2018 02:14 15,2 C 15,0 C 13,9 C 79 % 0 lf 1007,8 hPa 0,0 l/m 0 min 0 min 0 W/m 22,5 km/h (4 Bft) 97,87 %
25.04.2018 02:16 15,2 C 15,0 C 13,9 C 79 % 0 lf 1007,7 hPa 0,0 l/m 0 min 0 min 0 W/m 22,5 km/h (4 Bft) 95,65 %
25.04.2018 02:18 15,2 C 15,0 C 13,9 C 78 % 0 lf 1007,7 hPa 0,0 l/m 0 min 0 min 0 W/m 24,8 km/h (4 Bft) 97,87 %
25.04.2018 02:20 15,3 C 15,0 C 13,9 C 78 % 0 lf 1007,7 hPa 0,0 l/m 0 min 0 min 0 W/m 20,3 km/h (4 Bft) 97,87 %
25.04.2018 02:22 15,3 C 15,0 C 13,9 C 78 % 0 lf 1007,7 hPa 0,0 l/m 0 min 0 min 0 W/m 20,3 km/h (4 Bft) 97,87 %
25.04.2018 02:24 15,3 C 15,0 C 13,9 C 77 % 0 lf 1007,7 hPa 0,0 l/m 0 min 0 min 0 W/m 13,5 km/h (3 Bft) 93,62 %
25.04.2018 02:26 15,3 C 15,6 C 13,9 C 77 % 0 lf 1007,7 hPa 0,0 l/m 0 min 0 min 0 W/m 27,0 km/h (4 Bft) 97,87 %
25.04.2018 02:28 15,4 C 15,6 C 13,9 C 77 % 0 lf 1007,7 hPa 0,0 l/m 0 min 0 min 0 W/m 18,0 km/h (3 Bft) 95,65 %
25.04.2018 02:30 15,4 C 15,6 C 13,9 C 76 % 0 lf 1007,7 hPa 0,0 l/m 0 min 0 min 0 W/m 18,0 km/h (3 Bft) 97,87 %
25.04.2018 02:32 15,4 C 15,6 C 13,9 C 76 % 0 lf 1007,7 hPa 0,0 l/m 0 min 0 min 0 W/m 18,0 km/h (3 Bft) 95,74 %
25.04.2018 02:34 15,4 C 15,6 C 13,9 C 76 % 0 lf 1007,7 hPa 0,0 l/m 0 min 0 min 0 W/m 24,8 km/h (4 Bft) 95,74 %
25.04.2018 02:36 15,4 C 15,6 C 13,9 C 76 % 0 lf 1007,7 hPa 0,0 l/m 0 min 0 min 0 W/m 24,8 km/h (4 Bft) 97,87 %
25.04.2018 02:38 15,5 C 15,6 C 13,9 C 76 % 0 lf 1007,7 hPa 0,0 l/m 0 min 0 min 0 W/m 24,8 km/h (4 Bft) 97,87 %
25.04.2018 02:40 15,5 C 15,6 C 13,9 C 75 % 0 lf 1007,6 hPa 0,0 l/m 0 min 0 min 0 W/m 15,8 km/h (3 Bft) 100,00 %
25.04.2018 02:42 15,5 C 15,6 C 13,9 C 75 % 0 lf 1007,6 hPa 0,0 l/m 0 min 0 min 0 W/m 27,0 km/h (4 Bft) 100,00 %
25.04.2018 02:44 15,6 C 15,6 C 13,9 C 75 % 0 lf 1007,5 hPa 0,0 l/m 0 min 0 min 0 W/m 15,8 km/h (3 Bft) 100,00 %
25.04.2018 02:46 15,6 C 15,6 C 13,9 C 75 % 0 lf 1007,3 hPa 0,0 l/m 0 min 0 min 0 W/m 13,5 km/h (3 Bft) 97,87 %
25.04.2018 02:48 15,6 C 15,6 C 13,9 C 74 % 0 lf 1007,4 hPa 0,0 l/m 0 min 0 min 0 W/m 24,8 km/h (4 Bft) 100,00 %
25.04.2018 02:50 15,6 C 15,6 C 13,9 C 74 % 0 lf 1007,3 hPa 0,0 l/m 0 min 0 min 0 W/m 15,8 km/h (3 Bft) 100,00 %
25.04.2018 02:52 15,6 C 15,6 C 13,9 C 74 % 0 lf 1007,2 hPa 0,0 l/m 0 min 0 min 0 W/m 24,8 km/h (4 Bft) 100,00 %
25.04.2018 02:54 15,6 C 15,6 C 13,9 C 74 % 0 lf 1007,2 hPa 0,0 l/m 0 min 0 min 0 W/m 22,5 km/h (4 Bft) 97,87 %
25.04.2018 02:56 15,6 C 15,6 C 13,9 C 74 % 0 lf 1007,2 hPa 0,0 l/m 0 min 0 min 0 W/m 22,5 km/h (4 Bft) 100,00 %
25.04.2018 02:58 15,6 C 15,6 C 13,9 C 74 % 0 lf 1007,3 hPa 0,0 l/m 0 min 0 min 0 W/m 18,0 km/h (3 Bft) 97,87 %
25.04.2018 03:00 15,6 C 15,6 C 13,9 C 74 % 0 lf 1007,3 hPa 0,0 l/m 0 min 0 min 0 W/m 24,8 km/h (4 Bft) 100,00 %
25.04.2018 03:02 15,6 C 15,6 C 13,9 C 74 % 0 lf 1007,3 hPa 0,0 l/m 0 min 0 min 0 W/m 22,5 km/h (4 Bft) 97,83 %
25.04.2018 03:04 15,6 C 15,6 C 13,9 C 73 % 0 lf 1007,4 hPa 0,0 l/m 0 min 0 min 0 W/m 22,5 km/h (4 Bft) 95,74 %
25.04.2018 03:06 15,6 C 15,6 C 13,9 C 73 % 0 lf 1007,3 hPa 0,0 l/m 0 min 0 min 0 W/m 20,3 km/h (4 Bft) 95,74 %
25.04.2018 03:08 15,6 C 15,6 C 13,9 C 73 % 0 lf 1007,4 hPa 0,0 l/m 0 min 0 min 0 W/m 22,5 km/h (4 Bft) 97,87 %
25.04.2018 03:10 15,6 C 15,6 C 13,9 C 73 % 0 lf 1007,4 hPa 0,0 l/m 0 min 0 min 0 W/m 24,8 km/h (4 Bft) 100,00 %
25.04.2018 03:12 15,6 C 15,6 C 13,9 C 73 % 0 lf 1007,3 hPa 0,0 l/m 0 min 0 min 0 W/m 20,3 km/h (4 Bft) 93,62 %
25.04.2018 03:14 15,7 C 15,0 C 13,9 C 73 % 0 lf 1007,3 hPa 0,0 l/m 0 min 0 min 0 W/m 15,8 km/h (3 Bft) 97,83 %
25.04.2018 03:16 15,6 C 15,0 C 13,9 C 73 % 0 lf 1007,3 hPa 0,0 l/m 0 min 0 min 0 W/m 18,0 km/h (3 Bft) 97,87 %
25.04.2018 03:18 15,6 C 15,0 C 13,9 C 73 % 0 lf 1007,3 hPa 0,0 l/m 0 min 0 min 0 W/m 24,8 km/h (4 Bft) 97,87 %
25.04.2018 03:20 15,6 C 15,0 C 13,9 C 73 % 0 lf 1007,3 hPa 0,0 l/m 0 min 0 min 0 W/m 18,0 km/h (3 Bft) 93,62 %
25.04.2018 03:22 15,6 C 15,0 C 13,9 C 73 % 0 lf 1007,3 hPa 0,0 l/m 0 min 0 min 0 W/m 22,5 km/h (4 Bft) 93,62 %
25.04.2018 03:24 15,6 C 15,0 C 13,9 C 73 % 0 lf 1007,3 hPa 0,0 l/m 0 min 0 min 0 W/m 27,0 km/h (4 Bft) 95,74 %
25.04.2018 03:26 15,6 C 15,0 C 13,9 C 73 % 0 lf 1007,5 hPa 0,0 l/m 0 min 0 min 0 W/m 31,5 km/h (5 Bft) 95,65 %
25.04.2018 03:28 15,6 C 15,0 C 13,9 C 73 % 0 lf 1007,5 hPa 0,0 l/m 0 min 0 min 0 W/m 29,3 km/h (5 Bft) 91,49 %
25.04.2018 03:30 15,6 C 15,0 C 13,9 C 73 % 0 lf 1007,3 hPa 0,0 l/m 0 min 0 min 0 W/m 27,0 km/h (4 Bft) 95,74 %
25.04.2018 03:32 15,6 C 15,0 C 13,9 C 73 % 0 lf 1007,3 hPa 0,0 l/m 0 min 0 min 0 W/m 33,8 km/h (5 Bft) 95,74 %
25.04.2018 03:34 15,6 C 15,0 C 13,9 C 73 % 0 lf 1007,4 hPa 0,0 l/m 0 min 0 min 0 W/m 24,8 km/h (4 Bft) 95,74 %
25.04.2018 03:36 15,6 C 15,0 C 13,9 C 73 % 0 lf 1007,4 hPa 0,0 l/m 0 min 0 min 0 W/m 22,5 km/h (4 Bft) 93,62 %
25.04.2018 03:38 15,6 C 15,0 C 13,9 C 73 % 0 lf 1007,4 hPa 0,0 l/m 0 min 0 min 0 W/m 27,0 km/h (4 Bft) 95,65 %
25.04.2018 03:40 15,6 C 15,0 C 13,9 C 74 % 0 lf 1007,4 hPa 0,0 l/m 0 min 0 min 0 W/m 31,5 km/h (5 Bft) 95,74 %
25.04.2018 03:42 15,6 C 15,0 C 13,9 C 74 % 0 lf 1007,3 hPa 0,0 l/m 0 min 0 min 0 W/m 24,8 km/h (4 Bft) 93,62 %
25.04.2018 03:44 15,6 C 15,0 C 13,9 C 74 % 0 lf 1007,3 hPa 0,0 l/m 0 min 0 min 0 W/m 24,8 km/h (4 Bft) 97,87 %
25.04.2018 03:46 15,5 C 15,0 C 13,9 C 74 % 0 lf 1007,4 hPa 0,0 l/m 0 min 0 min 0 W/m 20,3 km/h (4 Bft) 95,74 %
25.04.2018 03:48 15,6 C 15,0 C 13,9 C 74 % 0 lf 1007,4 hPa 0,0 l/m 0 min 0 min 0 W/m 22,5 km/h (4 Bft) 95,74 %
25.04.2018 03:50 15,5 C 15,0 C 13,9 C 74 % 0 lf 1007,3 hPa 0,0 l/m 0 min 0 min 0 W/m 31,5 km/h (5 Bft) 93,48 %
25.04.2018 03:52 15,5 C 15,0 C 13,9 C 74 % 0 lf 1007,4 hPa 0,0 l/m 0 min 0 min 0 W/m 24,8 km/h (4 Bft) 95,74 %
25.04.2018 03:54 15,5 C 15,0 C 13,9 C 75 % 0 lf 1007,3 hPa 0,0 l/m 0 min 0 min 0 W/m 27,0 km/h (4 Bft) 93,62 %
25.04.2018 03:56 15,4 C 15,0 C 13,9 C 75 % 0 lf 1007,3 hPa 0,0 l/m 0 min 0 min 0 W/m 24,8 km/h (4 Bft) 93,62 %
25.04.2018 03:58 15,4 C 15,0 C 13,9 C 75 % 0 lf 1007,3 hPa 0,0 l/m 0 min 0 min 0 W/m 24,8 km/h (4 Bft) 95,74 %
25.04.2018 04:00 15,4 C 15,0 C 13,9 C 75 % 0 lf 1007,2 hPa 0,0 l/m 0 min 0 min 0 W/m 33,8 km/h (5 Bft) 93,62 %
25.04.2018 04:02 15,4 C 15,0 C 13,9 C 75 % 0 lf 1007,3 hPa 0,0 l/m 0 min 0 min 0 W/m 20,3 km/h (4 Bft) 100,00 %
25.04.2018 04:04 15,4 C 15,0 C 13,9 C 76 % 0 lf 1007,3 hPa 0,0 l/m 0 min 0 min 0 W/m 24,8 km/h (4 Bft) 97,87 %
25.04.2018 04:06 15,4 C 15,0 C 13,9 C 76 % 0 lf 1007,2 hPa 0,0 l/m 0 min 0 min 0 W/m 22,5 km/h (4 Bft) 91,49 %
25.04.2018 04:08 15,3 C 15,0 C 13,9 C 76 % 0 lf 1007,2 hPa 0,0 l/m 0 min 0 min 0 W/m 22,5 km/h (4 Bft) 87,23 %
25.04.2018 04:10 15,3 C 15,0 C 13,9 C 76 % 0 lf 1007,2 hPa 0,0 l/m 0 min 0 min 0 W/m 24,8 km/h (4 Bft) 95,74 %
25.04.2018 04:12 15,3 C 15,0 C 13,9 C 76 % 0 lf 1007,2 hPa 0,0 l/m 0 min 0 min 0 W/m 22,5 km/h (4 Bft) 91,49 %
25.04.2018 04:14 15,3 C 15,0 C 13,9 C 76 % 0 lf 1007,2 hPa 0,0 l/m 0 min 0 min 0 W/m 20,3 km/h (4 Bft) 97,83 %
25.04.2018 04:16 15,3 C 14,4 C 13,9 C 77 % 0 lf 1007,3 hPa 0,0 l/m 0 min 0 min 0 W/m 20,3 km/h (4 Bft) 95,74 %
25.04.2018 04:18 15,3 C 14,4 C 13,3 C 77 % 0 lf 1007,2 hPa 0,0 l/m 0 min 0 min 0 W/m 13,5 km/h (3 Bft) 93,62 %
25.04.2018 04:20 15,3 C 14,4 C 13,3 C 77 % 0 lf 1007,2 hPa 0,0 l/m 0 min 0 min 0 W/m 20,3 km/h (4 Bft) 95,74 %
25.04.2018 04:22 15,2 C 14,4 C 13,3 C 77 % 0 lf 1007,1 hPa 0,0 l/m 0 min 0 min 0 W/m 18,0 km/h (3 Bft) 95,74 %
25.04.2018 04:24 15,2 C 14,4 C 13,3 C 77 % 0 lf 1007,2 hPa 0,0 l/m 0 min 0 min 0 W/m 22,5 km/h (4 Bft) 91,49 %
25.04.2018 04:26 15,2 C 14,4 C 13,9 C 77 % 0 lf 1007,1 hPa 0,0 l/m 0 min 0 min 0 W/m 20,3 km/h (4 Bft) 95,65 %
25.04.2018 04:28 15,2 C 14,4 C 13,3 C 78 % 0 lf 1007,1 hPa 0,0 l/m 0 min 0 min 0 W/m 24,8 km/h (4 Bft) 91,49 %
25.04.2018 04:30 15,2 C 14,4 C 13,3 C 78 % 0 lf 1007,1 hPa 0,0 l/m 0 min 0 min 0 W/m 27,0 km/h (4 Bft) 91,49 %
25.04.2018 04:32 15,2 C 14,4 C 13,3 C 78 % 0 lf 1007,1 hPa 0,0 l/m 0 min 0 min 0 W/m 20,3 km/h (4 Bft) 97,87 %
25.04.2018 04:34 15,2 C 14,4 C 13,3 C 78 % 0 lf 1007,1 hPa 0,0 l/m 0 min 0 min 0 W/m 18,0 km/h (3 Bft) 95,74 %
25.04.2018 04:36 15,1 C 14,4 C 13,3 C 78 % 0 lf 1007,0 hPa 0,0 l/m 0 min 0 min 0 W/m 22,5 km/h (4 Bft) 95,65 %
25.04.2018 04:38 15,1 C 14,4 C 13,3 C 78 % 0 lf 1007,0 hPa 0,0 l/m 0 min 0 min 0 W/m 22,5 km/h (4 Bft) 95,74 %
25.04.2018 04:40 15,1 C 14,4 C 13,3 C 78 % 0 lf 1007,0 hPa 0,0 l/m 0 min 0 min 0 W/m 29,3 km/h (5 Bft) 95,74 %
25.04.2018 04:42 15,1 C 14,4 C 13,3 C 78 % 0 lf 1007,0 hPa 0,0 l/m 0 min 0 min 0 W/m 20,3 km/h (4 Bft) 93,62 %
25.04.2018 04:44 15,1 C 14,4 C 13,3 C 78 % 0 lf 1007,0 hPa 0,0 l/m 0 min 0 min 0 W/m 27,0 km/h (4 Bft) 97,87 %
25.04.2018 04:46 15,1 C 14,4 C 13,3 C 78 % 0 lf 1007,0 hPa 0,0 l/m 0 min 0 min 0 W/m 22,5 km/h (4 Bft) 97,87 %
25.04.2018 04:48 15,1 C 14,4 C 13,3 C 78 % 0 lf 1007,0 hPa 0,0 l/m 0 min 0 min 0 W/m 20,3 km/h (4 Bft) 97,83 %
25.04.2018 04:50 15,1 C 14,4 C 13,3 C 79 % 0 lf 1007,0 hPa 0,0 l/m 0 min 0 min 0 W/m 18,0 km/h (3 Bft) 100,00 %
25.04.2018 04:52 15,0 C 14,4 C 13,3 C 79 % 0 lf 1006,9 hPa 0,0 l/m 0 min 0 min 0 W/m 18,0 km/h (3 Bft) 100,00 %
25.04.2018 04:54 15,0 C 14,4 C 13,3 C 79 % 0 lf 1006,9 hPa 0,0 l/m 0 min 0 min 0 W/m 22,5 km/h (4 Bft) 97,87 %
25.04.2018 04:56 15,0 C 14,4 C 13,3 C 79 % 0 lf 1006,9 hPa 0,0 l/m 0 min 0 min 0 W/m 20,3 km/h (4 Bft) 97,87 %
25.04.2018 04:58 15,0 C 14,4 C 13,3 C 79 % 0 lf 1007,0 hPa 0,0 l/m 0 min 0 min 0 W/m 20,3 km/h (4 Bft) 97,87 %
25.04.2018 05:00 15,0 C 14,4 C 13,3 C 79 % 0 lf 1007,0 hPa 0,0 l/m 0 min 0 min 0 W/m 24,8 km/h (4 Bft) 97,83 %
25.04.2018 05:02 14,9 C 14,4 C 13,3 C 79 % 0 lf 1007,0 hPa 0,0 l/m 0 min 0 min 0 W/m 20,3 km/h (4 Bft) 93,62 %
25.04.2018 05:04 14,9 C 14,4 C 13,3 C 79 % 0 lf 1007,0 hPa 0,0 l/m 0 min 0 min 0 W/m 24,8 km/h (4 Bft) 100,00 %
25.04.2018 05:06 14,9 C 14,4 C 13,3 C 79 % 0 lf 1007,0 hPa 0,0 l/m 0 min 0 min 0 W/m 31,5 km/h (5 Bft) 100,00 %
25.04.2018 05:08 14,9 C 14,4 C 13,3 C 79 % 0 lf 1007,0 hPa 0,0 l/m 0 min 0 min 0 W/m 36,0 km/h (5 Bft) 100,00 %
25.04.2018 05:10 14,9 C 14,4 C 13,3 C 80 % 0 lf 1007,0 hPa 0,0 l/m 0 min 0 min 0 W/m 33,8 km/h (5 Bft) 100,00 %
25.04.2018 05:12 14,9 C 14,4 C 13,3 C 80 % 0 lf 1007,0 hPa 0,0 l/m 0 min 0 min 0 W/m 24,8 km/h (4 Bft) 97,83 %
25.04.2018 05:14 14,9 C 14,4 C 13,3 C 80 % 0 lf 1007,1 hPa 0,0 l/m 0 min 0 min 0 W/m 33,8 km/h (5 Bft) 100,00 %
25.04.2018 05:16 14,9 C 14,4 C 13,3 C 80 % 0 lf 1007,0 hPa 0,0 l/m 0 min 0 min 0 W/m 45,1 km/h (6 Bft) 100,00 %
25.04.2018 05:18 14,9 C 14,4 C 13,3 C 80 % 0 lf 1007,0 hPa 0,0 l/m 0 min 0 min 0 W/m 40,6 km/h (6 Bft) 97,87 %
25.04.2018 05:20 14,8 C 14,4 C 13,3 C 80 % 0 lf 1007,0 hPa 0,0 l/m 0 min 0 min 0 W/m 38,3 km/h (5 Bft) 97,87 %
25.04.2018 05:22 14,8 C 14,4 C 13,3 C 80 % 0 lf 1007,0 hPa 0,0 l/m 0 min 0 min 0 W/m 40,6 km/h (6 Bft) 100,00 %
25.04.2018 05:24 14,8 C 14,4 C 13,3 C 80 % 0 lf 1007,0 hPa 0,0 l/m 0 min 0 min 0 W/m 36,0 km/h (5 Bft) 97,83 %
25.04.2018 05:26 14,8 C 14,4 C 13,3 C 80 % 0 lf 1007,0 hPa 0,0 l/m 0 min 0 min 0 W/m 27,0 km/h (4 Bft) 100,00 %
25.04.2018 05:28 14,8 C 14,4 C 13,3 C 80 % 0 lf 1007,0 hPa 0,0 l/m 0 min 0 min 0 W/m 45,1 km/h (6 Bft) 100,00 %
25.04.2018 05:30 14,8 C 14,4 C 13,3 C 80 % 0 lf 1007,0 hPa 0,0 l/m 0 min 0 min 0 W/m 27,0 km/h (4 Bft) 100,00 %
25.04.2018 05:32 14,8 C 14,4 C 13,3 C 80 % 0 lf 1007,0 hPa 0,0 l/m 0 min 0 min 0 W/m 36,0 km/h (5 Bft) 100,00 %
25.04.2018 05:34 14,8 C 14,4 C 13,3 C 80 % 0 lf 1007,0 hPa 0,0 l/m 0 min 0 min 0 W/m 33,8 km/h (5 Bft) 100,00 %
25.04.2018 05:35 14,8 C 14,4 C 13,3 C 80 % 0 lf 1007,0 hPa 0,0 l/m 0 min 0 min 0 W/m 36,0 km/h (5 Bft) 100,00 %
25.04.2018 05:40 14,7 C 14,4 C 13,3 C 81 % 0 lf 1007,1 hPa 0,0 l/m 0 min 0 min 0 W/m 22,5 km/h (4 Bft) 95,24 %
25.04.2018 05:42 14,7 C 14,4 C 13,3 C 81 % 0 lf 1007,0 hPa 0,0 l/m 0 min 0 min 0 W/m 20,3 km/h (4 Bft) 100,00 %
25.04.2018 05:44 14,7 C 14,4 C 13,3 C 81 % 0 lf 1007,1 hPa 0,0 l/m 0 min 0 min 0 W/m 20,3 km/h (4 Bft) 100,00 %
25.04.2018 05:46 14,7 C 14,4 C 13,3 C 81 % 0 lf 1007,1 hPa 0,0 l/m 0 min 0 min 0 W/m 20,3 km/h (4 Bft) 97,87 %
25.04.2018 05:48 14,7 C 14,4 C 13,3 C 81 % 0 lf 1007,0 hPa 0,0 l/m 0 min 0 min 0 W/m 22,5 km/h (4 Bft) 100,00 %
25.04.2018 05:50 14,7 C 14,4 C 13,3 C 81 % 0 lf 1007,1 hPa 0,0 l/m 0 min 0 min 0 W/m 36,0 km/h (5 Bft) 100,00 %
25.04.2018 05:52 14,7 C 14,4 C 13,3 C 81 % 0 lf 1007,1 hPa 0,0 l/m 0 min 0 min 0 W/m 38,3 km/h (5 Bft) 95,74 %
25.04.2018 05:54 14,7 C 14,4 C 13,3 C 81 % 0 lf 1007,0 hPa 0,0 l/m 0 min 0 min 0 W/m 38,3 km/h (5 Bft) 100,00 %
25.04.2018 05:56 14,6 C 14,4 C 13,3 C 81 % 0 lf 1007,0 hPa 0,0 l/m 0 min 0 min 0 W/m 36,0 km/h (5 Bft) 100,00 %
25.04.2018 05:58 14,6 C 14,4 C 13,3 C 81 % 0 lf 1007,1 hPa 0,0 l/m 0 min 0 min 0 W/m 33,8 km/h (5 Bft) 100,00 %
25.04.2018 06:00 14,6 C 14,4 C 13,3 C 81 % 0 lf 1007,1 hPa 0,0 l/m 0 min 0 min 0 W/m 47,3 km/h (6 Bft) 100,00 %
25.04.2018 06:02 14,6 C 14,4 C 13,3 C 81 % 0 lf 1007,0 hPa 0,0 l/m 0 min 0 min 0 W/m 38,3 km/h (5 Bft) 97,83 %
25.04.2018 06:04 14,6 C 14,4 C 13,3 C 81 % 0 lf 1007,1 hPa 0,0 l/m 0 min 0 min 0 W/m 33,8 km/h (5 Bft) 97,87 %
25.04.2018 06:07 14,6 C 13,9 C 13,3 C 81 % 0 lf 1007,1 hPa 0,0 l/m 0 min 0 min 0 W/m 36,0 km/h (5 Bft) 97,87 %
25.04.2018 06:08 14,6 C 13,9 C 13,3 C 81 % 0 lf 1007,1 hPa 0,0 l/m 0 min 0 min 0 W/m 36,0 km/h (5 Bft) 95,74 %
25.04.2018 06:10 14,6 C 13,9 C 13,3 C 81 % 0 lf 1007,1 hPa 0,0 l/m 0 min 0 min 0 W/m 33,8 km/h (5 Bft) 93,62 %
25.04.2018 06:12 14,5 C 13,9 C 12,8 C 81 % 0 lf 1007,1 hPa 0,0 l/m 0 min 0 min 0 W/m 27,0 km/h (4 Bft) 97,87 %
25.04.2018 06:14 14,5 C 13,9 C 12,8 C 81 % 0 lf 1007,1 hPa 0,0 l/m 0 min 0 min 0 W/m 24,8 km/h (4 Bft) 95,65 %
25.04.2018 06:16 14,5 C 13,9 C 12,8 C 81 % 0 lf 1007,2 hPa 0,0 l/m 0 min 0 min 0 W/m 33,8 km/h (5 Bft) 95,74 %
25.04.2018 06:18 14,4 C 13,9 C 12,8 C 81 % 0 lf 1007,1 hPa 0,0 l/m 0 min 0 min 0 W/m 29,3 km/h (5 Bft) 95,74 %
25.04.2018 06:20 14,4 C 13,9 C 12,8 C 82 % 0 lf 1007,1 hPa 0,0 l/m 0 min 0 min 0 W/m 27,0 km/h (4 Bft) 95,74 %
25.04.2018 06:22 14,4 C 13,9 C 12,8 C 82 % 0 lf 1007,2 hPa 0,0 l/m 0 min 0 min 0 W/m 33,8 km/h (5 Bft) 95,74 %
25.04.2018 06:24 14,4 C 13,9 C 12,8 C 82 % 0 lf 1007,1 hPa 0,0 l/m 0 min 0 min 0 W/m 24,8 km/h (4 Bft) 97,83 %
25.04.2018 06:26 14,4 C 13,9 C 12,8 C 82 % 0 lf 1007,1 hPa 0,0 l/m 0 min 0 min 0 W/m 29,3 km/h (5 Bft) 93,62 %
25.04.2018 06:28 14,4 C 13,9 C 12,8 C 82 % 0 lf 1007,1 hPa 0,0 l/m 0 min 0 min 5 W/m 22,5 km/h (4 Bft) 93,62 %
25.04.2018 06:30 14,3 C 13,9 C 12,8 C 82 % 0 lf 1007,0 hPa 0,0 l/m 0 min 0 min 6 W/m 20,3 km/h (4 Bft) 93,62 %
25.04.2018 06:32 14,3 C 13,9 C 12,8 C 82 % 0 lf 1007,0 hPa 0,0 l/m 0 min 0 min 7 W/m 31,5 km/h (5 Bft) 97,87 %
25.04.2018 06:34 14,3 C 13,9 C 12,8 C 82 % 0 lf 1007,0 hPa 0,0 l/m 0 min 0 min 7 W/m 29,3 km/h (5 Bft) 97,87 %
25.04.2018 06:36 14,3 C 13,9 C 12,8 C 82 % 0 lf 1007,1 hPa 0,0 l/m 0 min 0 min 7 W/m 33,8 km/h (5 Bft) 93,48 %
25.04.2018 06:38 14,3 C 13,9 C 12,8 C 81 % 0 lf 1007,0 hPa 0,0 l/m 0 min 0 min 7 W/m 29,3 km/h (5 Bft) 95,74 %
25.04.2018 06:40 14,2 C 13,9 C 12,8 C 81 % 0 lf 1007,1 hPa 0,0 l/m 0 min 0 min 7 W/m 42,8 km/h (6 Bft) 91,49 %
25.04.2018 06:42 14,2 C 13,9 C 12,8 C 81 % 0 lf 1007,1 hPa 0,0 l/m 0 min 0 min 7 W/m 40,6 km/h (6 Bft) 95,74 %
25.04.2018 06:44 14,2 C 13,9 C 12,8 C 81 % 0 lf 1007,1 hPa 0,0 l/m 0 min 0 min 7 W/m 24,8 km/h (4 Bft) 95,74 %
25.04.2018 06:46 14,2 C 13,9 C 12,8 C 81 % 0 lf 1007,0 hPa 0,0 l/m 0 min 0 min 8 W/m 24,8 km/h (4 Bft) 95,74 %
25.04.2018 06:48 14,2 C 13,9 C 12,8 C 81 % 0 lf 1007,2 hPa 0,0 l/m 0 min 0 min 11 W/m 42,8 km/h (6 Bft) 91,30 %
25.04.2018 06:50 14,2 C 13,9 C 12,8 C 81 % 2 lf 1007,1 hPa 0,0 l/m 0 min 0 min 12 W/m 36,0 km/h (5 Bft) 93,62 %
25.04.2018 06:52 14,2 C 13,9 C 12,2 C 81 % 15 lf 1007,1 hPa 0,0 l/m 0 min 2 min 13 W/m 38,3 km/h (5 Bft) 91,49 %
25.04.2018 06:54 14,2 C 13,3 C 11,7 C 82 % 15 lf 1007,0 hPa 0,0 l/m 0 min 2 min 14 W/m 33,8 km/h (5 Bft) 91,49 %
25.04.2018 06:56 14,2 C 13,3 C 11,1 C 82 % 15 lf 1007,2 hPa 0,0 l/m 0 min 2 min 11 W/m 47,3 km/h (6 Bft) 93,62 %
25.04.2018 06:58 14,2 C 12,8 C 11,1 C 83 % 15 lf 1007,0 hPa 0,0 l/m 0 min 2 min 11 W/m 31,5 km/h (5 Bft) 95,74 %
25.04.2018 07:00 14,1 C 12,8 C 11,1 C 83 % 15 lf 1007,2 hPa 0,0 l/m 0 min 2 min 11 W/m 36,0 km/h (5 Bft) 91,30 %
25.04.2018 07:02 14,0 C 12,8 C 11,1 C 83 % 15 lf 1007,1 hPa 0,0 l/m 0 min 2 min 12 W/m 24,8 km/h (4 Bft) 95,74 %
25.04.2018 07:04 13,9 C 12,8 C 11,1 C 84 % 15 lf 1007,2 hPa 0,0 l/m 0 min 0 min 14 W/m 24,8 km/h (4 Bft) 91,49 %
25.04.2018 07:06 13,8 C 12,8 C 11,1 C 84 % 15 lf 1007,1 hPa 0,0 l/m 0 min 2 min 12 W/m 31,5 km/h (5 Bft) 93,62 %
25.04.2018 07:08 13,8 C 12,8 C 11,1 C 84 % 15 lf 1007,2 hPa 0,0 l/m 0 min 0 min 9 W/m 20,3 km/h (4 Bft) 93,62 %
25.04.2018 07:10 13,8 C 12,8 C 11,1 C 85 % 15 lf 1007,3 hPa 0,0 l/m 0 min 0 min 10 W/m 27,0 km/h (4 Bft) 93,62 %
25.04.2018 07:12 13,7 C 12,8 C 11,1 C 85 % 15 lf 1007,3 hPa 0,0 l/m 0 min 2 min 13 W/m 38,3 km/h (5 Bft) 95,65 %
25.04.2018 07:14 13,7 C 12,8 C 11,1 C 85 % 15 lf 1007,2 hPa 0,0 l/m 0 min 2 min 16 W/m 33,8 km/h (5 Bft) 93,62 %
25.04.2018 07:16 13,6 C 12,8 C 11,1 C 86 % 15 lf 1007,5 hPa 0,0 l/m 0 min 2 min 16 W/m 29,3 km/h (5 Bft) 91,49 %
25.04.2018 07:18 13,6 C 12,2 C 11,1 C 86 % 15 lf 1007,5 hPa 0,0 l/m 0 min 2 min 12 W/m 27,0 km/h (4 Bft) 91,49 %
25.04.2018 07:20 13,5 C 12,2 C 10,6 C 86 % 15 lf 1007,5 hPa 0,0 l/m 0 min 2 min 17 W/m 45,1 km/h (6 Bft) 95,74 %
25.04.2018 07:22 13,4 C 12,2 C 10,6 C 87 % 15 lf 1007,5 hPa 0,0 l/m 0 min 2 min 22 W/m 27,0 km/h (4 Bft) 95,65 %
25.04.2018 07:24 13,4 C 12,2 C 10,6 C 87 % 15 lf 1007,6 hPa 0,0 l/m 0 min 2 min 25 W/m 18,0 km/h (3 Bft) 95,74 %
25.04.2018 07:26 13,3 C 12,2 C 10,6 C 87 % 15 lf 1007,5 hPa 0,0 l/m 0 min 2 min 25 W/m 20,3 km/h (4 Bft) 95,74 %
25.04.2018 07:28 13,3 C 12,2 C 10,6 C 88 % 15 lf 1007,6 hPa 0,0 l/m 0 min 2 min 21 W/m 27,0 km/h (4 Bft) 93,62 %
25.04.2018 07:30 13,2 C 11,7 C 10,6 C 88 % 15 lf 1007,6 hPa 0,0 l/m 0 min 2 min 19 W/m 22,5 km/h (4 Bft) 95,74 %
25.04.2018 07:32 13,2 C 11,7 C 10,6 C 88 % 15 lf 1007,6 hPa 0,0 l/m 0 min 2 min 23 W/m 27,0 km/h (4 Bft) 95,74 %
25.04.2018 07:34 13,2 C 11,7 C 10,6 C 89 % 15 lf 1007,6 hPa 0,2 l/m 0 min 2 min 27 W/m 20,3 km/h (4 Bft) 95,65 %
25.04.2018 07:36 13,2 C 11,7 C 11,1 C 89 % 15 lf 1007,7 hPa 0,0 l/m 0 min 2 min 41 W/m 20,3 km/h (4 Bft) 93,62 %
25.04.2018 07:38 13,1 C 11,7 C 11,1 C 89 % 15 lf 1007,6 hPa 0,0 l/m 0 min 0 min 47 W/m 20,3 km/h (4 Bft) 93,62 %
25.04.2018 07:40 13,1 C 11,7 C 11,1 C 90 % 15 lf 1007,7 hPa 0,0 l/m 0 min 2 min 20 W/m 15,8 km/h (3 Bft) 100,00 %
25.04.2018 07:42 13,1 C 11,7 C 11,1 C 90 % 15 lf 1007,6 hPa 0,0 l/m 0 min 2 min 18 W/m 11,3 km/h (2 Bft) 95,74 %
25.04.2018 07:44 13,1 C 11,7 C 11,1 C 90 % 15 lf 1007,7 hPa 0,0 l/m 0 min 2 min 36 W/m 11,3 km/h (2 Bft) 97,87 %
25.04.2018 07:46 13,0 C 11,7 C 11,1 C 90 % 15 lf 1007,6 hPa 0,0 l/m 0 min 2 min 44 W/m 20,3 km/h (4 Bft) 100,00 %
25.04.2018 07:48 13,0 C 11,7 C 11,1 C 90 % 15 lf 1007,7 hPa 0,0 l/m 0 min 2 min 35 W/m 13,5 km/h (3 Bft) 97,87 %
25.04.2018 07:50 12,9 C 11,7 C 11,1 C 91 % 15 lf 1007,7 hPa 0,0 l/m 0 min 2 min 20 W/m 24,8 km/h (4 Bft) 97,87 %
25.04.2018 07:52 12,9 C 11,7 C 11,1 C 91 % 15 lf 1007,7 hPa 0,0 l/m 0 min 2 min 19 W/m 22,5 km/h (4 Bft) 97,87 %
25.04.2018 07:54 12,9 C 11,7 C 11,1 C 91 % 15 lf 1007,8 hPa 0,0 l/m 0 min 2 min 19 W/m 29,3 km/h (5 Bft) 100,00 %
25.04.2018 07:56 12,8 C 11,7 C 10,6 C 91 % 15 lf 1007,7 hPa 0,0 l/m 0 min 2 min 32 W/m 33,8 km/h (5 Bft) 100,00 %
25.04.2018 07:58 12,8 C 11,7 C 10,6 C 91 % 15 lf 1007,8 hPa 0,0 l/m 0 min 2 min 31 W/m 15,8 km/h (3 Bft) 97,83 %
25.04.2018 08:00 12,7 C 11,7 C 10,6 C 91 % 15 lf 1007,8 hPa 0,2 l/m 0 min 0 min 27 W/m 27,0 km/h (4 Bft) 100,00 %
25.04.2018 08:02 12,7 C 11,1 C 10,6 C 92 % 15 lf 1007,8 hPa 0,0 l/m 0 min 0 min 26 W/m 31,5 km/h (5 Bft) 95,74 %
25.04.2018 08:04 12,6 C 11,1 C 10,6 C 92 % 15 lf 1007,8 hPa 0,0 l/m 0 min 2 min 23 W/m 36,0 km/h (5 Bft) 100,00 %
25.04.2018 08:08 12,4 C 11,1 C 10,6 C 92 % 15 lf 1008,0 hPa 0,0 l/m 0 min 0 min 21 W/m 31,5 km/h (5 Bft) 97,00 %
25.04.2018 08:10 12,4 C 11,1 C 10,6 C 92 % 15 lf 1008,0 hPa 0,0 l/m 0 min 0 min 26 W/m 27,0 km/h (4 Bft) 97,87 %
25.04.2018 08:12 12,4 C 11,1 C 10,6 C 92 % 15 lf 1008,1 hPa 0,0 l/m 0 min 2 min 24 W/m 27,0 km/h (4 Bft) 100,00 %
25.04.2018 08:14 12,4 C 11,1 C 10,6 C 93 % 15 lf 1008,1 hPa 0,0 l/m 0 min 2 min 19 W/m 15,8 km/h (3 Bft) 93,48 %
25.04.2018 08:16 12,3 C 11,1 C 10,6 C 93 % 15 lf 1008,1 hPa 0,0 l/m 0 min 2 min 15 W/m 18,0 km/h (3 Bft) 97,62 %
25.04.2018 08:18 12,3 C 11,1 C 10,6 C 93 % 15 lf 1008,1 hPa 0,0 l/m 0 min 2 min 19 W/m 18,0 km/h (3 Bft) 97,92 %
25.04.2018 08:20 12,3 C 11,1 C 10,6 C 93 % 15 lf 1008,2 hPa 0,0 l/m 0 min 2 min 22 W/m 13,5 km/h (3 Bft) 97,87 %
25.04.2018 08:22 12,3 C 11,1 C 10,6 C 93 % 15 lf 1008,2 hPa 0,0 l/m 0 min 2 min 34 W/m 22,5 km/h (4 Bft) 95,65 %
25.04.2018 08:24 12,3 C 11,1 C 10,6 C 93 % 15 lf 1008,3 hPa 0,0 l/m 0 min 0 min 38 W/m 29,3 km/h (5 Bft) 97,87 %
25.04.2018 08:26 12,3 C 11,1 C 10,6 C 93 % 15 lf 1008,3 hPa 0,0 l/m 0 min 2 min 30 W/m 27,0 km/h (4 Bft) 97,87 %
25.04.2018 08:28 12,2 C 11,1 C 10,6 C 93 % 15 lf 1008,3 hPa 0,0 l/m 0 min 2 min 44 W/m 33,8 km/h (5 Bft) 95,74 %
25.04.2018 08:30 12,2 C 11,1 C 10,6 C 94 % 15 lf 1008,3 hPa 0,0 l/m 0 min 2 min 59 W/m 29,3 km/h (5 Bft) 97,87 %
25.04.2018 08:32 12,2 C 11,1 C 10,6 C 94 % 15 lf 1008,3 hPa 0,0 l/m 0 min 0 min 64 W/m 27,0 km/h (4 Bft) 97,87 %
25.04.2018 08:34 12,1 C 11,1 C 10,6 C 94 % 15 lf 1008,3 hPa 0,0 l/m 0 min 0 min 69 W/m 27,0 km/h (4 Bft) 97,83 %
25.04.2018 08:38 12,0 C 11,1 C 10,6 C 94 % 15 lf 1008,4 hPa 0,0 l/m 0 min 0 min 69 W/m 31,5 km/h (5 Bft) 97,87 %
25.04.2018 08:40 12,0 C 11,1 C 10,6 C 94 % 15 lf 1008,4 hPa 0,0 l/m 0 min 0 min 70 W/m 27,0 km/h (4 Bft) 93,62 %
25.04.2018 08:42 11,9 C 11,1 C 10,6 C 94 % 15 lf 1008,4 hPa 0,0 l/m 0 min 0 min 83 W/m 20,3 km/h (4 Bft) 100,00 %
25.04.2018 08:44 11,9 C 11,1 C 10,6 C 94 % 15 lf 1008,4 hPa 0,0 l/m 0 min 0 min 91 W/m 22,5 km/h (4 Bft) 100,00 %
25.04.2018 08:46 11,9 C 11,7 C 10,6 C 94 % 15 lf 1008,4 hPa 0,0 l/m 0 min 0 min 93 W/m 24,8 km/h (4 Bft) 97,83 %
25.04.2018 08:48 11,9 C 11,7 C 11,1 C 94 % 15 lf 1008,4 hPa 0,0 l/m 0 min 0 min 117 W/m 22,5 km/h (4 Bft) 100,00 %
25.04.2018 08:50 11,9 C 11,7 C 11,1 C 94 % 15 lf 1008,3 hPa 0,0 l/m 0 min 0 min 135 W/m 29,3 km/h (5 Bft) 100,00 %
25.04.2018 08:52 11,9 C 11,7 C 11,1 C 94 % 15 lf 1008,4 hPa 0,0 l/m 0 min 0 min 132 W/m 29,3 km/h (5 Bft) 97,87 %
25.04.2018 08:54 12,0 C 11,7 C 11,1 C 94 % 15 lf 1008,4 hPa 0,0 l/m 0 min 0 min 147 W/m 33,8 km/h (5 Bft) 100,00 %
25.04.2018 08:56 12,0 C 11,7 C 11,1 C 94 % 15 lf 1008,5 hPa 0,0 l/m 0 min 0 min 145 W/m 31,5 km/h (5 Bft) 97,83 %
25.04.2018 08:58 12,0 C 12,2 C 11,1 C 94 % 15 lf 1008,5 hPa 0,0 l/m 0 min 0 min 143 W/m 22,5 km/h (4 Bft) 100,00 %
25.04.2018 09:00 12,0 C 12,2 C 11,1 C 94 % 15 lf 1008,5 hPa 0,0 l/m 0 min 0 min 169 W/m 33,8 km/h (5 Bft) 100,00 %
25.04.2018 09:02 12,1 C 12,2 C 11,7 C 94 % 15 lf 1008,5 hPa 0,0 l/m 2 min 0 min 203 W/m 27,0 km/h (4 Bft) 97,87 %
25.04.2018 09:04 12,1 C 12,8 C 11,7 C 94 % 15 lf 1008,4 hPa 0,0 l/m 2 min 0 min 240 W/m 18,0 km/h (3 Bft) 97,87 %
25.04.2018 09:06 12,1 C 12,8 C 11,7 C 94 % 15 lf 1008,5 hPa 0,0 l/m 2 min 0 min 219 W/m 38,3 km/h (5 Bft) 97,87 %
25.04.2018 09:08 12,1 C 12,8 C 11,7 C 94 % 15 lf 1008,5 hPa 0,0 l/m 0 min 0 min 206 W/m 29,3 km/h (5 Bft) 97,83 %
25.04.2018 09:10 12,2 C 12,8 C 11,7 C 94 % 15 lf 1008,5 hPa 0,0 l/m 2 min 0 min 230 W/m 20,3 km/h (4 Bft) 100,00 %
25.04.2018 09:12 12,2 C 13,3 C 11,7 C 94 % 15 lf 1008,6 hPa 0,0 l/m 2 min 0 min 241 W/m 20,3 km/h (4 Bft) 100,00 %
25.04.2018 09:14 12,2 C 13,3 C 12,2 C 94 % 15 lf 1008,5 hPa 0,0 l/m 2 min 0 min 220 W/m 24,8 km/h (4 Bft) 91,49 %
25.04.2018 09:16 12,2 C 13,3 C 11,7 C 94 % 15 lf 1008,6 hPa 0,0 l/m 0 min 0 min 159 W/m 20,3 km/h (4 Bft) 97,87 %
25.04.2018 09:18 12,3 C 12,8 C 11,7 C 94 % 15 lf 1008,7 hPa 0,0 l/m 0 min 0 min 126 W/m 27,0 km/h (4 Bft) 97,87 %
25.04.2018 09:20 12,3 C 13,9 C 12,2 C 94 % 15 lf 1008,7 hPa 0,0 l/m 2 min 0 min 231 W/m 15,8 km/h (3 Bft) 97,83 %
25.04.2018 09:22 12,3 C 13,3 C 12,2 C 94 % 15 lf 1008,7 hPa 0,0 l/m 2 min 0 min 275 W/m 20,3 km/h (4 Bft) 97,87 %
25.04.2018 09:24 12,4 C 12,8 C 12,2 C 94 % 15 lf 1008,7 hPa 0,0 l/m 0 min 0 min 200 W/m 22,5 km/h (4 Bft) 97,87 %
25.04.2018 09:26 12,4 C 12,8 C 12,2 C 94 % 15 lf 1008,7 hPa 0,0 l/m 0 min 0 min 175 W/m 20,3 km/h (4 Bft) 97,87 %
25.04.2018 09:28 12,5 C 14,4 C 12,2 C 94 % 15 lf 1008,7 hPa 0,0 l/m 2 min 0 min 259 W/m 24,8 km/h (4 Bft) 97,87 %
25.04.2018 09:30 12,6 C 13,9 C 12,2 C 94 % 14 lf 1008,7 hPa 0,0 l/m 2 min 0 min 366 W/m 24,8 km/h (4 Bft) 95,74 %
25.04.2018 09:32 12,6 C 13,9 C 12,2 C 94 % 11 lf 1008,7 hPa 0,0 l/m 2 min 0 min 336 W/m 40,6 km/h (6 Bft) 97,83 %
25.04.2018 09:34 12,7 C 13,9 C 12,8 C 94 % 7 lf 1008,6 hPa 0,0 l/m 2 min 0 min 259 W/m 22,5 km/h (4 Bft) 93,62 %
25.04.2018 09:36 12,7 C 13,9 C 12,2 C 93 % 3 lf 1008,7 hPa 0,0 l/m 2 min 0 min 275 W/m 24,8 km/h (4 Bft) 93,62 %
25.04.2018 09:38 12,7 C 14,4 C 12,2 C 93 % 1 lf 1008,7 hPa 0,0 l/m 2 min 0 min 257 W/m 29,3 km/h (5 Bft) 93,62 %
25.04.2018 09:40 12,8 C 14,4 C 12,2 C 93 % 0 lf 1008,7 hPa 0,0 l/m 2 min 0 min 248 W/m 31,5 km/h (5 Bft) 95,74 %
25.04.2018 09:42 12,8 C 14,4 C 12,2 C 93 % 0 lf 1008,7 hPa 0,0 l/m 2 min 0 min 281 W/m 31,5 km/h (5 Bft) 95,74 %
25.04.2018 09:44 12,9 C 16,1 C 12,2 C 92 % 0 lf 1008,7 hPa 0,0 l/m 2 min 0 min 313 W/m 27,0 km/h (4 Bft) 93,48 %
25.04.2018 09:46 12,9 C 16,7 C 12,8 C 92 % 0 lf 1008,7 hPa 0,0 l/m 2 min 0 min 334 W/m 18,0 km/h (3 Bft) 97,87 %
25.04.2018 09:48 13,0 C 16,7 C 12,8 C 92 % 0 lf 1008,7 hPa 0,0 l/m 2 min 0 min 299 W/m 29,3 km/h (5 Bft) 93,62 %
25.04.2018 09:50 13,1 C 16,7 C 12,8 C 91 % 0 lf 1008,7 hPa 0,0 l/m 2 min 0 min 257 W/m 27,0 km/h (4 Bft) 95,74 %
25.04.2018 09:52 13,2 C 16,7 C 12,8 C 91 % 0 lf 1008,8 hPa 0,0 l/m 2 min 0 min 277 W/m 27,0 km/h (4 Bft) 93,62 %
25.04.2018 09:54 13,3 C 17,8 C 13,9 C 91 % 0 lf 1008,7 hPa 0,0 l/m 2 min 0 min 350 W/m 22,5 km/h (4 Bft) 95,74 %
25.04.2018 09:56 13,3 C 18,3 C 13,9 C 91 % 0 lf 1008,7 hPa 0,0 l/m 2 min 0 min 281 W/m 29,3 km/h (5 Bft) 93,48 %
25.04.2018 09:58 13,4 C 17,2 C 13,3 C 90 % 0 lf 1008,7 hPa 0,0 l/m 0 min 0 min 256 W/m 33,8 km/h (5 Bft) 93,62 %
25.04.2018 10:00 13,4 C 16,1 C 12,8 C 90 % 0 lf 1008,8 hPa 0,0 l/m 0 min 0 min 259 W/m 38,3 km/h (5 Bft) 95,74 %
25.04.2018 10:02 13,5 C 16,7 C 13,3 C 89 % 0 lf 1008,7 hPa 0,0 l/m 2 min 0 min 289 W/m 29,3 km/h (5 Bft) 95,74 %
25.04.2018 10:04 13,6 C 16,7 C 13,9 C 89 % 0 lf 1008,8 hPa 0,0 l/m 2 min 0 min 292 W/m 27,0 km/h (4 Bft) 93,62 %
25.04.2018 10:06 13,6 C 15,6 C 12,8 C 89 % 0 lf 1008,8 hPa 0,0 l/m 0 min 0 min 192 W/m 27,0 km/h (4 Bft) 87,23 %
25.04.2018 10:08 13,6 C 15,0 C 12,8 C 88 % 0 lf 1008,8 hPa 0,0 l/m 0 min 0 min 144 W/m 27,0 km/h (4 Bft) 91,30 %
25.04.2018 10:10 13,7 C 15,0 C 12,8 C 88 % 0 lf 1008,8 hPa 0,0 l/m 0 min 0 min 219 W/m 22,5 km/h (4 Bft) 93,62 %
25.04.2018 10:12 13,7 C 15,0 C 12,8 C 87 % 0 lf 1008,9 hPa 0,0 l/m 0 min 0 min 245 W/m 27,0 km/h (4 Bft) 97,87 %
25.04.2018 10:14 13,7 C 15,0 C 12,8 C 87 % 0 lf 1008,9 hPa 0,0 l/m 0 min 0 min 222 W/m 20,3 km/h (4 Bft) 91,49 %
25.04.2018 10:16 13,7 C 15,6 C 12,8 C 87 % 0 lf 1008,9 hPa 0,0 l/m 0 min 0 min 243 W/m 24,8 km/h (4 Bft) 95,74 %
25.04.2018 10:18 13,7 C 15,6 C 12,8 C 87 % 0 lf 1008,9 hPa 0,0 l/m 0 min 0 min 233 W/m 24,8 km/h (4 Bft) 91,30 %
25.04.2018 10:20 13,8 C 15,6 C 12,8 C 87 % 0 lf 1008,9 hPa 0,0 l/m 0 min 0 min 210 W/m 24,8 km/h (4 Bft) 93,62 %
25.04.2018 10:22 13,7 C 15,0 C 12,2 C 87 % 2 lf 1008,9 hPa 0,0 l/m 0 min 0 min 201 W/m 40,6 km/h (6 Bft) 97,87 %
25.04.2018 10:24 13,7 C 14,4 C 12,2 C 86 % 1 lf 1009,1 hPa 0,0 l/m 0 min 0 min 148 W/m 27,0 km/h (4 Bft) 93,62 %
25.04.2018 10:26 13,7 C 13,9 C 11,7 C 86 % 15 lf 1009,2 hPa 0,0 l/m 0 min 2 min 65 W/m 33,8 km/h (5 Bft) 95,74 %
25.04.2018 10:28 13,7 C 13,3 C 11,1 C 86 % 15 lf 1009,3 hPa 0,2 l/m 0 min 2 min 69 W/m 24,8 km/h (4 Bft) 95,74 %
25.04.2018 10:30 13,6 C 12,8 C 10,6 C 85 % 15 lf 1009,4 hPa 0,0 l/m 0 min 2 min 100 W/m 33,8 km/h (5 Bft) 93,48 %
25.04.2018 10:32 13,4 C 12,8 C 10,6 C 85 % 15 lf 1009,5 hPa 0,0 l/m 0 min 2 min 173 W/m 27,0 km/h (4 Bft) 96,00 %
25.04.2018 10:34 13,2 C 14,4 C 11,7 C 85 % 15 lf 1009,6 hPa 0,0 l/m 0 min 0 min 226 W/m 31,5 km/h (5 Bft) 95,74 %
25.04.2018 10:38 13,1 C 13,9 C 11,7 C 86 % 15 lf 1009,7 hPa 0,0 l/m 0 min 0 min 185 W/m 22,5 km/h (4 Bft) 93,62 %
25.04.2018 10:40 13,0 C 13,3 C 11,1 C 86 % 15 lf 1009,7 hPa 0,0 l/m 0 min 0 min 133 W/m 27,0 km/h (4 Bft) 97,83 %
25.04.2018 10:42 12,9 C 15,6 C 12,2 C 86 % 15 lf 1009,7 hPa 0,0 l/m 0 min 0 min 135 W/m 27,0 km/h (4 Bft) 95,74 %
25.04.2018 10:44 12,9 C 17,8 C 13,9 C 87 % 15 lf 1009,6 hPa 0,0 l/m 2 min 0 min 673 W/m 22,5 km/h (4 Bft) 95,74 %
25.04.2018 10:46 13,0 C 20,6 C 15,0 C 87 % 15 lf 1009,7 hPa 0,0 l/m 2 min 0 min 668 W/m 24,8 km/h (4 Bft) 93,62 %
25.04.2018 10:48 13,0 C 21,7 C 15,0 C 88 % 15 lf 1009,6 hPa 0,0 l/m 2 min 0 min 681 W/m 22,5 km/h (4 Bft) 97,87 %
25.04.2018 10:50 13,1 C 23,3 C 16,1 C 88 % 15 lf 1009,7 hPa 0,0 l/m 2 min 0 min 693 W/m 18,0 km/h (3 Bft) 97,87 %
25.04.2018 10:52 13,3 C 22,2 C 16,1 C 88 % 15 lf 1009,7 hPa 0,0 l/m 2 min 0 min 725 W/m 29,3 km/h (5 Bft) 97,83 %
25.04.2018 10:54 13,4 C 22,8 C 16,7 C 88 % 15 lf 1009,7 hPa 0,0 l/m 2 min 0 min 797 W/m 24,8 km/h (4 Bft) 100,00 %
25.04.2018 10:56 13,6 C 21,7 C 16,1 C 88 % 15 lf 1009,7 hPa 0,0 l/m 2 min 0 min 800 W/m 24,8 km/h (4 Bft) 97,87 %
25.04.2018 10:58 13,7 C 20,0 C 15,6 C 87 % 14 lf 1009,7 hPa 0,0 l/m 2 min 0 min 657 W/m 22,5 km/h (4 Bft) 95,74 %
25.04.2018 11:00 13,7 C 18,9 C 14,4 C 87 % 12 lf 1009,7 hPa 0,0 l/m 0 min 0 min 284 W/m 15,8 km/h (3 Bft) 95,74 %
25.04.2018 11:02 13,8 C 17,2 C 13,9 C 87 % 5 lf 1009,9 hPa 0,0 l/m 0 min 0 min 269 W/m 24,8 km/h (4 Bft) 95,74 %
25.04.2018 11:04 13,8 C 17,8 C 13,9 C 86 % 1 lf 1009,9 hPa 0,0 l/m 2 min 0 min 336 W/m 20,3 km/h (4 Bft) 97,83 %
25.04.2018 11:06 13,9 C 17,2 C 13,9 C 86 % 0 lf 1010,0 hPa 0,0 l/m 0 min 0 min 305 W/m 18,0 km/h (3 Bft) 97,87 %
25.04.2018 11:08 13,9 C 16,7 C 13,9 C 86 % 0 lf 1010,0 hPa 0,0 l/m 0 min 0 min 234 W/m 24,8 km/h (4 Bft) 100,00 %
25.04.2018 11:10 13,9 C 16,1 C 13,3 C 85 % 0 lf 1010,0 hPa 0,0 l/m 0 min 0 min 277 W/m 22,5 km/h (4 Bft) 95,74 %
25.04.2018 11:12 13,9 C 15,6 C 13,3 C 84 % 0 lf 1010,0 hPa 0,0 l/m 0 min 0 min 194 W/m 13,5 km/h (3 Bft) 95,74 %
25.04.2018 11:14 13,9 C 15,6 C 12,8 C 84 % 0 lf 1010,1 hPa 0,0 l/m 0 min 0 min 145 W/m 27,0 km/h (4 Bft) 100,00 %
25.04.2018 11:16 13,9 C 15,0 C 12,2 C 83 % 0 lf 1010,1 hPa 0,0 l/m 0 min 0 min 182 W/m 33,8 km/h (5 Bft) 97,83 %
25.04.2018 11:18 13,8 C 15,0 C 12,2 C 82 % 0 lf 1010,1 hPa 0,0 l/m 0 min 0 min 255 W/m 33,8 km/h (5 Bft) 100,00 %
25.04.2018 11:20 13,8 C 15,0 C 12,8 C 82 % 0 lf 1010,2 hPa 0,0 l/m 0 min 0 min 244 W/m 27,0 km/h (4 Bft) 100,00 %
25.04.2018 11:22 13,7 C 15,6 C 12,8 C 82 % 0 lf 1010,1 hPa 0,0 l/m 0 min 0 min 259 W/m 27,0 km/h (4 Bft) 97,87 %
25.04.2018 11:24 13,8 C 18,9 C 15,0 C 82 % 0 lf 1010,1 hPa 0,0 l/m 0 min 0 min 264 W/m 31,5 km/h (5 Bft) 100,00 %
25.04.2018 11:26 13,8 C 19,4 C 15,0 C 82 % 0 lf 1010,1 hPa 0,0 l/m 0 min 0 min 264 W/m 29,3 km/h (5 Bft) 97,87 %
25.04.2018 11:28 14,0 C 22,2 C 16,7 C 82 % 0 lf 1010,1 hPa 0,0 l/m 2 min 0 min 717 W/m 22,5 km/h (4 Bft) 97,83 %
25.04.2018 11:30 14,2 C 22,8 C 16,7 C 82 % 0 lf 1010,1 hPa 0,0 l/m 2 min 0 min 741 W/m 20,3 km/h (4 Bft) 95,74 %
25.04.2018 11:32 14,2 C 21,7 C 16,1 C 82 % 0 lf 1010,1 hPa 0,0 l/m 2 min 0 min 733 W/m 33,8 km/h (5 Bft) 100,00 %
25.04.2018 11:34 14,3 C 22,8 C 16,1 C 81 % 0 lf 1010,1 hPa 0,0 l/m 2 min 0 min 733 W/m 20,3 km/h (4 Bft) 97,87 %
25.04.2018 11:36 14,4 C 22,8 C 16,7 C 81 % 0 lf 1010,1 hPa 0,0 l/m 2 min 0 min 738 W/m 33,8 km/h (5 Bft) 100,00 %
25.04.2018 11:38 14,6 C 22,8 C 16,1 C 80 % 0 lf 1010,1 hPa 0,0 l/m 2 min 0 min 805 W/m 29,3 km/h (5 Bft) 97,87 %
25.04.2018 11:40 14,7 C 20,0 C 15,0 C 79 % 0 lf 1010,2 hPa 0,0 l/m 0 min 0 min 329 W/m 20,3 km/h (4 Bft) 97,83 %
25.04.2018 11:42 14,7 C 18,9 C 14,4 C 78 % 0 lf 1010,3 hPa 0,0 l/m 0 min 0 min 222 W/m 27,0 km/h (4 Bft) 100,00 %
25.04.2018 11:44 14,7 C 17,2 C 13,3 C 77 % 0 lf 1010,3 hPa 0,0 l/m 0 min 0 min 242 W/m 36,0 km/h (5 Bft) 100,00 %
25.04.2018 11:46 14,7 C 18,9 C 14,4 C 76 % 0 lf 1010,3 hPa 0,0 l/m 0 min 0 min 206 W/m 29,3 km/h (5 Bft) 97,87 %
25.04.2018 11:48 14,7 C 20,0 C 15,6 C 76 % 0 lf 1010,2 hPa 0,0 l/m 2 min 0 min 888 W/m 36,0 km/h (5 Bft) 100,00 %
25.04.2018 11:50 14,8 C 20,0 C 15,6 C 76 % 0 lf 1010,2 hPa 0,0 l/m 2 min 0 min 781 W/m 47,3 km/h (6 Bft) 100,00 %
25.04.2018 11:52 14,8 C 18,9 C 15,0 C 74 % 0 lf 1010,3 hPa 0,0 l/m 0 min 0 min 244 W/m 38,3 km/h (5 Bft) 100,00 %
25.04.2018 11:54 14,8 C 20,6 C 16,1 C 74 % 0 lf 1010,3 hPa 0,0 l/m 2 min 0 min 548 W/m 40,6 km/h (6 Bft) 100,00 %
25.04.2018 11:56 14,9 C 21,1 C 16,7 C 72 % 0 lf 1010,4 hPa 0,0 l/m 2 min 0 min 875 W/m 29,3 km/h (5 Bft) 100,00 %
25.04.2018 11:58 14,9 C 20,0 C 16,1 C 72 % 0 lf 1010,4 hPa 0,0 l/m 2 min 0 min 882 W/m 33,8 km/h (5 Bft) 100,00 %
25.04.2018 12:00 14,9 C 18,9 C 15,6 C 72 % 0 lf 1010,4 hPa 0,0 l/m 2 min 0 min 449 W/m 33,8 km/h (5 Bft) 100,00 %
25.04.2018 12:02 14,9 C 18,3 C 15,0 C 71 % 0 lf 1010,4 hPa 0,0 l/m 2 min 0 min 362 W/m 33,8 km/h (5 Bft) 100,00 %
25.04.2018 12:04 14,9 C 17,8 C 15,6 C 72 % 0 lf 1010,4 hPa 0,0 l/m 2 min 0 min 370 W/m 45,1 km/h (6 Bft) 97,87 %
25.04.2018 12:07 14,8 C 17,8 C 16,1 C 71 % 0 lf 1010,4 hPa 0,0 l/m 3 min 0 min 364 W/m 36,0 km/h (5 Bft) 97,18 %
25.04.2018 12:08 14,8 C 17,8 C 16,1 C 71 % 0 lf 1010,4 hPa 0,0 l/m 0 min 0 min 345 W/m 31,5 km/h (5 Bft) 91,30 %
25.04.2018 12:10 14,8 C 17,8 C 16,1 C 71 % 0 lf 1010,4 hPa 0,0 l/m 0 min 0 min 337 W/m 27,0 km/h (4 Bft) 100,00 %
25.04.2018 12:12 14,8 C 21,1 C 17,8 C 72 % 0 lf 1010,4 hPa 0,0 l/m 2 min 0 min 665 W/m 24,8 km/h (4 Bft) 97,87 %
25.04.2018 12:14 14,9 C 22,8 C 18,9 C 73 % 0 lf 1010,4 hPa 0,0 l/m 2 min 0 min 949 W/m 24,8 km/h (4 Bft) 93,48 %
25.04.2018 12:16 15,1 C 22,2 C 19,4 C 74 % 0 lf 1010,4 hPa 0,0 l/m 2 min 0 min 949 W/m 31,5 km/h (5 Bft) 95,74 %
25.04.2018 12:18 15,2 C 21,1 C 18,9 C 72 % 0 lf 1010,3 hPa 0,0 l/m 2 min 0 min 949 W/m 22,5 km/h (4 Bft) 95,74 %
25.04.2018 12:20 15,2 C 20,6 C 18,3 C 71 % 0 lf 1010,4 hPa 0,2 l/m 2 min 0 min 883 W/m 31,5 km/h (5 Bft) 91,49 %
25.04.2018 12:22 15,3 C 22,2 C 19,4 C 71 % 0 lf 1010,3 hPa 0,0 l/m 2 min 0 min 807 W/m 27,0 km/h (4 Bft) 93,62 %
25.04.2018 12:24 15,4 C 23,9 C 19,4 C 71 % 0 lf 1010,4 hPa 0,0 l/m 2 min 0 min 851 W/m 29,3 km/h (5 Bft) 95,74 %
25.04.2018 12:26 15,6 C 24,4 C 20,0 C 72 % 0 lf 1010,4 hPa 0,0 l/m 2 min 0 min 850 W/m 29,3 km/h (5 Bft) 95,65 %
25.04.2018 12:28 15,7 C 22,8 C 19,4 C 71 % 0 lf 1010,4 hPa 0,0 l/m 2 min 0 min 893 W/m 33,8 km/h (5 Bft) 93,62 %
25.04.2018 12:30 15,8 C 24,4 C 21,1 C 71 % 0 lf 1010,4 hPa 0,0 l/m 2 min 0 min 877 W/m 18,0 km/h (3 Bft) 91,49 %
25.04.2018 12:32 15,9 C 24,4 C 21,7 C 72 % 0 lf 1010,4 hPa 0,0 l/m 2 min 0 min 862 W/m 38,3 km/h (5 Bft) 91,49 %
25.04.2018 12:34 16,0 C 24,4 C 21,1 C 71 % 0 lf 1010,4 hPa 0,0 l/m 2 min 0 min 861 W/m 31,5 km/h (5 Bft) 95,74 %
25.04.2018 12:36 16,1 C 23,9 C 20,6 C 70 % 0 lf 1010,4 hPa 0,0 l/m 2 min 0 min 928 W/m 31,5 km/h (5 Bft) 91,49 %
25.04.2018 12:38 16,1 C 23,9 C 20,6 C 70 % 0 lf 1010,4 hPa 0,0 l/m 2 min 0 min 950 W/m 33,8 km/h (5 Bft) 93,48 %
25.04.2018 12:40 16,2 C 23,9 C 20,6 C 69 % 0 lf 1010,5 hPa 0,0 l/m 2 min 0 min 923 W/m 31,5 km/h (5 Bft) 91,49 %
25.04.2018 12:42 16,2 C 23,3 C 20,6 C 69 % 0 lf 1010,5 hPa 0,0 l/m 2 min 0 min 918 W/m 31,5 km/h (5 Bft) 93,62 %
25.04.2018 12:44 16,2 C 23,3 C 20,6 C 68 % 0 lf 1010,5 hPa 0,0 l/m 2 min 0 min 945 W/m 33,8 km/h (5 Bft) 93,62 %
25.04.2018 12:46 16,3 C 21,7 C 19,4 C 68 % 0 lf 1010,5 hPa 0,0 l/m 2 min 0 min 941 W/m 36,0 km/h (5 Bft) 93,62 %
25.04.2018 12:48 16,3 C 20,6 C 18,3 C 67 % 0 lf 1010,5 hPa 0,0 l/m 0 min 0 min 247 W/m 20,3 km/h (4 Bft) 91,49 %
25.04.2018 12:50 16,2 C 20,0 C 18,3 C 67 % 0 lf 1010,6 hPa 0,0 l/m 0 min 0 min 269 W/m 31,5 km/h (5 Bft) 89,13 %
25.04.2018 12:52 16,2 C 19,4 C 18,3 C 68 % 0 lf 1010,6 hPa 0,0 l/m 0 min 0 min 290 W/m 27,0 km/h (4 Bft) 93,62 %
25.04.2018 12:54 16,2 C 19,4 C 17,8 C 67 % 0 lf 1010,6 hPa 0,0 l/m 0 min 0 min 319 W/m 22,5 km/h (4 Bft) 93,62 %
25.04.2018 12:56 16,1 C 20,6 C 18,9 C 67 % 0 lf 1010,6 hPa 0,0 l/m 0 min 0 min 332 W/m 20,3 km/h (4 Bft) 93,62 %
25.04.2018 12:58 16,2 C 21,1 C 19,4 C 68 % 0 lf 1010,6 hPa 0,0 l/m 0 min 0 min 334 W/m 40,6 km/h (6 Bft) 95,74 %
25.04.2018 13:00 16,1 C 18,9 C 17,8 C 65 % 0 lf 1010,5 hPa 0,0 l/m 0 min 0 min 352 W/m 42,8 km/h (6 Bft) 91,49 %
25.04.2018 13:02 16,0 C 18,3 C 17,8 C 65 % 0 lf 1010,6 hPa 0,0 l/m 0 min 0 min 349 W/m 38,3 km/h (5 Bft) 91,30 %
25.04.2018 13:04 16,0 C 17,8 C 17,2 C 65 % 0 lf 1010,6 hPa 0,0 l/m 0 min 0 min 347 W/m 31,5 km/h (5 Bft) 95,74 %
25.04.2018 13:06 15,9 C 18,9 C 17,2 C 66 % 0 lf 1010,5 hPa 0,0 l/m 0 min 0 min 381 W/m 38,3 km/h (5 Bft) 95,74 %
25.04.2018 13:08 15,9 C 21,1 C 18,3 C 68 % 0 lf 1010,7 hPa 0,0 l/m 0 min 0 min 381 W/m 29,3 km/h (5 Bft) 95,74 %
25.04.2018 13:10 16,0 C 22,2 C 18,9 C 69 % 0 lf 1010,6 hPa 0,0 l/m 2 min 0 min 792 W/m 20,3 km/h (4 Bft) 93,62 %
25.04.2018 13:12 16,1 C 22,2 C 18,9 C 69 % 0 lf 1010,5 hPa 0,0 l/m 2 min 0 min 997 W/m 20,3 km/h (4 Bft) 97,87 %
25.04.2018 13:14 16,2 C 21,1 C 18,3 C 69 % 0 lf 1010,7 hPa 0,0 l/m 0 min 0 min 356 W/m 45,1 km/h (6 Bft) 93,48 %
25.04.2018 13:16 16,2 C 19,4 C 18,3 C 69 % 0 lf 1010,7 hPa 0,0 l/m 2 min 0 min 395 W/m 36,0 km/h (5 Bft) 95,74 %
25.04.2018 13:18 16,1 C 18,9 C 17,8 C 69 % 0 lf 1010,7 hPa 0,0 l/m 2 min 0 min 385 W/m 33,8 km/h (5 Bft) 95,74 %
25.04.2018 13:20 16,1 C 18,9 C 17,8 C 69 % 0 lf 1010,6 hPa 0,0 l/m 0 min 0 min 380 W/m 42,8 km/h (6 Bft) 95,74 %
25.04.2018 13:22 16,0 C 20,0 C 17,8 C 69 % 0 lf 1010,6 hPa 0,0 l/m 2 min 0 min 609 W/m 38,3 km/h (5 Bft) 95,74 %
25.04.2018 13:24 16,1 C 21,7 C 18,3 C 70 % 0 lf 1010,7 hPa 0,0 l/m 2 min 0 min 661 W/m 27,0 km/h (4 Bft) 95,65 %
25.04.2018 13:26 16,1 C 21,7 C 17,8 C 69 % 0 lf 1010,7 hPa 0,0 l/m 2 min 0 min 661 W/m 24,8 km/h (4 Bft) 95,74 %
25.04.2018 13:28 16,1 C 23,9 C 18,3 C 70 % 0 lf 1010,6 hPa 0,0 l/m 2 min 0 min 827 W/m 31,5 km/h (5 Bft) 97,87 %
25.04.2018 13:30 16,2 C 25,0 C 18,9 C 70 % 0 lf 1010,7 hPa 0,0 l/m 2 min 0 min 1009 W/m 27,0 km/h (4 Bft) 95,74 %
25.04.2018 13:32 16,3 C 22,8 C 18,3 C 70 % 0 lf 1010,7 hPa 0,0 l/m 2 min 0 min 1005 W/m 27,0 km/h (4 Bft) 97,87 %
25.04.2018 13:34 16,3 C 21,1 C 17,8 C 69 % 0 lf 1010,7 hPa 0,0 l/m 0 min 0 min 290 W/m 22,5 km/h (4 Bft) 95,74 %
25.04.2018 13:36 16,3 C 19,4 C 17,8 C 68 % 0 lf 1010,6 hPa 0,0 l/m 0 min 0 min 311 W/m 27,0 km/h (4 Bft) 97,83 %
25.04.2018 13:38 16,3 C 21,7 C 17,8 C 68 % 0 lf 1010,5 hPa 0,0 l/m 2 min 0 min 597 W/m 29,3 km/h (5 Bft) 97,87 %
25.04.2018 13:40 16,3 C 23,9 C 18,3 C 67 % 0 lf 1010,5 hPa 0,0 l/m 2 min 0 min 1015 W/m 31,5 km/h (5 Bft) 95,74 %
25.04.2018 13:42 16,4 C 22,2 C 18,3 C 67 % 0 lf 1010,6 hPa 0,0 l/m 2 min 0 min 1049 W/m 33,8 km/h (5 Bft) 95,74 %
25.04.2018 13:44 16,4 C 20,0 C 17,8 C 66 % 0 lf 1010,6 hPa 0,0 l/m 2 min 0 min 1049 W/m 31,5 km/h (5 Bft) 95,74 %
25.04.2018 13:46 16,3 C 18,9 C 17,2 C 66 % 0 lf 1010,7 hPa 0,0 l/m 0 min 0 min 276 W/m 24,8 km/h (4 Bft) 97,87 %
25.04.2018 13:48 16,3 C 18,3 C 17,2 C 66 % 0 lf 1010,7 hPa 0,0 l/m 0 min 0 min 282 W/m 38,3 km/h (5 Bft) 97,83 %
25.04.2018 13:50 16,2 C 17,2 C 17,2 C 67 % 0 lf 1010,8 hPa 0,0 l/m 0 min 0 min 316 W/m 33,8 km/h (5 Bft) 97,87 %
25.04.2018 13:52 16,1 C 17,2 C 17,2 C 66 % 0 lf 1010,8 hPa 0,0 l/m 2 min 0 min 416 W/m 33,8 km/h (5 Bft) 97,87 %
25.04.2018 13:54 16,0 C 18,9 C 17,8 C 67 % 0 lf 1010,7 hPa 0,0 l/m 2 min 0 min 460 W/m 29,3 km/h (5 Bft) 97,87 %
25.04.2018 13:56 16,0 C 19,4 C 18,3 C 67 % 0 lf 1010,8 hPa 0,0 l/m 2 min 0 min 469 W/m 31,5 km/h (5 Bft) 95,74 %
25.04.2018 13:58 16,0 C 18,9 C 17,8 C 67 % 0 lf 1010,8 hPa 0,0 l/m 2 min 0 min 410 W/m 33,8 km/h (5 Bft) 97,87 %
25.04.2018 14:00 15,9 C 18,9 C 17,8 C 67 % 0 lf 1010,7 hPa 0,0 l/m 0 min 0 min 337 W/m 24,8 km/h (4 Bft) 100,00 %
25.04.2018 14:02 16,0 C 21,7 C 18,3 C 67 % 0 lf 1010,6 hPa 0,0 l/m 2 min 0 min 651 W/m 22,5 km/h (4 Bft) 95,92 %
25.04.2018 14:04 16,1 C 22,8 C 18,3 C 67 % 0 lf 1010,7 hPa 0,0 l/m 2 min 0 min 1022 W/m 33,8 km/h (5 Bft) 100,00 %
25.04.2018 14:06 16,2 C 22,8 C 18,9 C 68 % 0 lf 1010,6 hPa 0,0 l/m 2 min 0 min 1061 W/m 27,0 km/h (4 Bft) 100,00 %
25.04.2018 14:08 16,3 C 20,6 C 18,3 C 67 % 0 lf 1010,7 hPa 0,0 l/m 2 min 0 min 385 W/m 40,6 km/h (6 Bft) 100,00 %
25.04.2018 14:10 16,3 C 20,6 C 17,8 C 65 % 0 lf 1010,8 hPa 0,0 l/m 0 min 0 min 371 W/m 42,8 km/h (6 Bft) 100,00 %
25.04.2018 14:12 16,3 C 20,0 C 17,8 C 66 % 0 lf 1010,8 hPa 0,0 l/m 2 min 0 min 416 W/m 38,3 km/h (5 Bft) 93,48 %
25.04.2018 14:14 16,4 C 20,0 C 18,3 C 65 % 0 lf 1010,8 hPa 0,0 l/m 2 min 0 min 440 W/m 24,8 km/h (4 Bft) 100,00 %
25.04.2018 14:16 16,4 C 20,6 C 18,3 C 64 % 0 lf 1010,8 hPa 0,0 l/m 2 min 0 min 452 W/m 29,3 km/h (5 Bft) 100,00 %
25.04.2018 14:18 16,4 C 20,0 C 17,8 C 64 % 0 lf 1010,9 hPa 0,0 l/m 2 min 0 min 438 W/m 31,5 km/h (5 Bft) 100,00 %
25.04.2018 14:20 16,4 C 20,0 C 17,8 C 64 % 0 lf 1010,9 hPa 0,0 l/m 0 min 0 min 272 W/m 33,8 km/h (5 Bft) 97,87 %
25.04.2018 14:22 16,4 C 21,7 C 18,3 C 65 % 0 lf 1010,9 hPa 0,0 l/m 2 min 0 min 782 W/m 24,8 km/h (4 Bft) 100,00 %
25.04.2018 14:24 16,4 C 22,8 C 18,9 C 66 % 0 lf 1010,9 hPa 0,0 l/m 2 min 0 min 1069 W/m 42,8 km/h (6 Bft) 97,87 %
25.04.2018 14:26 16,6 C 23,9 C 18,9 C 65 % 0 lf 1010,9 hPa 0,0 l/m 2 min 0 min 1076 W/m 38,3 km/h (5 Bft) 100,00 %
25.04.2018 14:28 16,7 C 22,8 C 19,4 C 65 % 0 lf 1010,9 hPa 0,0 l/m 2 min 0 min 1076 W/m 29,3 km/h (5 Bft) 100,00 %
25.04.2018 14:30 16,8 C 21,7 C 19,4 C 64 % 0 lf 1010,9 hPa 0,0 l/m 2 min 0 min 862 W/m 31,5 km/h (5 Bft) 100,00 %
25.04.2018 14:32 16,8 C 21,7 C 18,9 C 64 % 0 lf 1010,9 hPa 0,0 l/m 2 min 0 min 493 W/m 29,3 km/h (5 Bft) 100,00 %
25.04.2018 14:34 16,8 C 21,7 C 18,9 C 63 % 0 lf 1011,0 hPa 0,0 l/m 2 min 0 min 478 W/m 31,5 km/h (5 Bft) 100,00 %
25.04.2018 14:36 16,8 C 22,8 C 18,9 C 63 % 0 lf 1011,0 hPa 0,0 l/m 2 min 0 min 936 W/m 29,3 km/h (5 Bft) 100,00 %
25.04.2018 14:38 16,9 C 23,9 C 18,9 C 64 % 0 lf 1011,0 hPa 0,0 l/m 2 min 0 min 750 W/m 27,0 km/h (4 Bft) 100,00 %
25.04.2018 14:40 16,9 C 24,4 C 18,9 C 64 % 0 lf 1011,0 hPa 0,0 l/m 2 min 0 min 791 W/m 22,5 km/h (4 Bft) 97,87 %
25.04.2018 14:42 17,1 C 23,9 C 19,4 C 64 % 0 lf 1011,0 hPa 0,0 l/m 2 min 0 min 946 W/m 40,6 km/h (6 Bft) 97,87 %
25.04.2018 14:44 17,1 C 21,7 C 18,9 C 61 % 0 lf 1011,0 hPa 0,0 l/m 2 min 0 min 592 W/m 22,5 km/h (4 Bft) 95,74 %
25.04.2018 14:46 17,1 C 20,0 C 17,8 C 61 % 0 lf 1011,0 hPa 0,0 l/m 0 min 0 min 241 W/m 24,8 km/h (4 Bft) 95,65 %
25.04.2018 14:48 17,0 C 20,0 C 17,8 C 61 % 0 lf 1011,0 hPa 0,0 l/m 0 min 0 min 306 W/m 42,8 km/h (6 Bft) 97,87 %
25.04.2018 14:50 16,9 C 19,4 C 17,8 C 61 % 0 lf 1011,0 hPa 0,0 l/m 0 min 0 min 316 W/m 40,6 km/h (6 Bft) 95,74 %
25.04.2018 14:52 16,9 C 18,9 C 17,2 C 60 % 0 lf 1011,0 hPa 0,0 l/m 0 min 0 min 250 W/m 31,5 km/h (5 Bft) 95,74 %
25.04.2018 14:54 16,8 C 19,4 C 17,8 C 60 % 0 lf 1010,9 hPa 0,0 l/m 0 min 0 min 295 W/m 31,5 km/h (5 Bft) 95,74 %
25.04.2018 14:56 16,7 C 21,1 C 18,9 C 61 % 0 lf 1010,9 hPa 0,0 l/m 2 min 0 min 632 W/m 36,0 km/h (5 Bft) 95,74 %
25.04.2018 14:58 16,7 C 21,7 C 19,4 C 61 % 0 lf 1010,9 hPa 0,0 l/m 2 min 0 min 901 W/m 29,3 km/h (5 Bft) 95,65 %
25.04.2018 15:00 16,8 C 22,2 C 19,4 C 62 % 0 lf 1011,0 hPa 0,0 l/m 2 min 0 min 720 W/m 29,3 km/h (5 Bft) 95,74 %
25.04.2018 15:02 16,8 C 22,8 C 20,6 C 62 % 0 lf 1011,1 hPa 0,0 l/m 2 min 0 min 700 W/m 29,3 km/h (5 Bft) 95,74 %
25.04.2018 15:04 16,9 C 21,7 C 20,0 C 60 % 0 lf 1011,0 hPa 0,0 l/m 2 min 0 min 923 W/m 33,8 km/h (5 Bft) 93,62 %
25.04.2018 15:06 16,9 C 20,6 C 19,4 C 59 % 0 lf 1011,1 hPa 0,0 l/m 2 min 0 min 671 W/m 36,0 km/h (5 Bft) 93,62 %
25.04.2018 15:08 16,9 C 18,9 C 18,9 C 59 % 0 lf 1011,1 hPa 0,0 l/m 0 min 0 min 295 W/m 31,5 km/h (5 Bft) 93,62 %
25.04.2018 15:10 16,8 C 18,3 C 17,8 C 59 % 0 lf 1011,2 hPa 0,0 l/m 0 min 0 min 265 W/m 33,8 km/h (5 Bft) 95,65 %
25.04.2018 15:12 16,7 C 17,8 C 17,2 C 59 % 0 lf 1011,2 hPa 0,0 l/m 0 min 0 min 260 W/m 33,8 km/h (5 Bft) 93,62 %
25.04.2018 15:14 16,7 C 20,0 C 18,9 C 61 % 0 lf 1011,2 hPa 0,0 l/m 0 min 0 min 271 W/m 15,8 km/h (3 Bft) 95,74 %
25.04.2018 15:16 16,7 C 20,6 C 20,0 C 61 % 0 lf 1011,1 hPa 0,0 l/m 0 min 0 min 271 W/m 22,5 km/h (4 Bft) 95,74 %
25.04.2018 15:18 16,7 C 22,2 C 21,7 C 61 % 0 lf 1011,1 hPa 0,0 l/m 2 min 0 min 474 W/m 22,5 km/h (4 Bft) 95,74 %
25.04.2018 15:20 16,7 C 22,8 C 22,8 C 62 % 0 lf 1011,1 hPa 0,0 l/m 2 min 0 min 815 W/m 27,0 km/h (4 Bft) 95,74 %
25.04.2018 15:22 16,8 C 21,7 C 22,2 C 60 % 0 lf 1011,0 hPa 0,0 l/m 2 min 0 min 838 W/m 33,8 km/h (5 Bft) 93,48 %
25.04.2018 15:24 16,8 C 21,7 C 21,7 C 60 % 0 lf 1011,1 hPa 0,0 l/m 2 min 0 min 916 W/m 27,0 km/h (4 Bft) 95,74 %
25.04.2018 15:26 16,9 C 20,6 C 20,6 C 60 % 0 lf 1011,0 hPa 0,0 l/m 2 min 0 min 804 W/m 22,5 km/h (4 Bft) 95,74 %
25.04.2018 15:28 16,9 C 19,4 C 19,4 C 60 % 0 lf 1011,1 hPa 0,0 l/m 0 min 0 min 217 W/m 20,3 km/h (4 Bft) 97,87 %
25.04.2018 15:30 16,9 C 18,3 C 18,3 C 59 % 0 lf 1011,1 hPa 0,0 l/m 0 min 0 min 232 W/m 27,0 km/h (4 Bft) 93,62 %
25.04.2018 15:32 16,8 C 18,9 C 18,9 C 58 % 0 lf 1011,0 hPa 0,0 l/m 2 min 0 min 347 W/m 36,0 km/h (5 Bft) 95,74 %
25.04.2018 15:34 16,8 C 18,9 C 18,9 C 59 % 0 lf 1011,0 hPa 0,0 l/m 2 min 0 min 357 W/m 18,0 km/h (3 Bft) 93,62 %
25.04.2018 15:36 16,7 C 17,8 C 17,8 C 58 % 0 lf 1011,0 hPa 0,0 l/m 0 min 0 min 277 W/m 31,5 km/h (5 Bft) 100,00 %
25.04.2018 15:38 16,6 C 17,2 C 17,8 C 57 % 0 lf 1011,0 hPa 0,0 l/m 0 min 0 min 251 W/m 27,0 km/h (4 Bft) 100,00 %
25.04.2018 15:40 16,6 C 17,2 C 17,2 C 58 % 0 lf 1011,1 hPa 0,0 l/m 0 min 0 min 239 W/m 33,8 km/h (5 Bft) 100,00 %
25.04.2018 15:42 16,4 C 16,7 C 17,2 C 57 % 0 lf 1011,0 hPa 0,0 l/m 0 min 0 min 222 W/m 27,0 km/h (4 Bft) 97,87 %
25.04.2018 15:44 16,4 C 16,7 C 16,7 C 57 % 0 lf 1011,0 hPa 0,0 l/m 0 min 0 min 204 W/m 29,3 km/h (5 Bft) 100,00 %
25.04.2018 15:46 16,3 C 16,7 C 16,7 C 57 % 0 lf 1011,0 hPa 0,0 l/m 0 min 0 min 192 W/m 29,3 km/h (5 Bft) 97,87 %
25.04.2018 15:48 16,2 C 16,1 C 16,1 C 58 % 0 lf 1011,0 hPa 0,0 l/m 0 min 0 min 178 W/m 24,8 km/h (4 Bft) 100,00 %
25.04.2018 15:50 16,2 C 16,1 C 16,1 C 58 % 0 lf 1011,0 hPa 0,0 l/m 0 min 0 min 171 W/m 31,5 km/h (5 Bft) 97,83 %
25.04.2018 15:52 16,1 C 16,1 C 16,1 C 59 % 0 lf 1010,9 hPa 0,0 l/m 0 min 0 min 151 W/m 22,5 km/h (4 Bft) 97,87 %
25.04.2018 15:54 16,0 C 16,1 C 16,1 C 59 % 0 lf 1011,0 hPa 0,0 l/m 0 min 0 min 141 W/m 27,0 km/h (4 Bft) 97,87 %
25.04.2018 15:56 15,9 C 15,6 C 15,6 C 59 % 0 lf 1011,1 hPa 0,0 l/m 0 min 0 min 139 W/m 33,8 km/h (5 Bft) 97,87 %
25.04.2018 15:58 15,8 C 15,6 C 15,6 C 58 % 0 lf 1010,9 hPa 0,0 l/m 0 min 0 min 154 W/m 31,5 km/h (5 Bft) 97,87 %
25.04.2018 16:00 15,8 C 15,6 C 15,6 C 59 % 0 lf 1011,0 hPa 0,0 l/m 0 min 0 min 172 W/m 20,3 km/h (4 Bft) 93,62 %
25.04.2018 16:02 15,7 C 16,1 C 16,1 C 59 % 0 lf 1010,9 hPa 0,0 l/m 0 min 0 min 189 W/m 20,3 km/h (4 Bft) 95,65 %
25.04.2018 16:04 15,7 C 16,1 C 16,1 C 61 % 0 lf 1011,0 hPa 0,0 l/m 0 min 0 min 203 W/m 15,8 km/h (3 Bft) 95,74 %
25.04.2018 16:06 15,7 C 16,1 C 16,1 C 60 % 0 lf 1011,1 hPa 0,0 l/m 0 min 0 min 217 W/m 27,0 km/h (4 Bft) 95,74 %
25.04.2018 16:08 15,6 C 16,1 C 16,1 C 60 % 0 lf 1011,1 hPa 0,0 l/m 0 min 0 min 220 W/m 27,0 km/h (4 Bft) 95,74 %
25.04.2018 16:10 15,6 C 16,1 C 16,1 C 60 % 0 lf 1011,1 hPa 0,0 l/m 0 min 0 min 222 W/m 24,8 km/h (4 Bft) 95,74 %
25.04.2018 16:12 15,6 C 16,1 C 16,1 C 60 % 0 lf 1011,1 hPa 0,0 l/m 0 min 0 min 235 W/m 22,5 km/h (4 Bft) 97,87 %
25.04.2018 16:14 15,6 C 16,1 C 16,1 C 60 % 0 lf 1011,1 hPa 0,0 l/m 0 min 0 min 246 W/m 36,0 km/h (5 Bft) 93,48 %
25.04.2018 16:16 15,5 C 16,7 C 16,1 C 59 % 0 lf 1011,1 hPa 0,0 l/m 0 min 0 min 296 W/m 27,0 km/h (4 Bft) 91,49 %
25.04.2018 16:18 15,5 C 16,7 C 16,7 C 60 % 0 lf 1011,2 hPa 0,0 l/m 2 min 0 min 321 W/m 27,0 km/h (4 Bft) 93,62 %
25.04.2018 16:20 15,5 C 16,7 C 16,7 C 60 % 0 lf 1011,2 hPa 0,0 l/m 2 min 0 min 354 W/m 22,5 km/h (4 Bft) 95,74 %
25.04.2018 16:22 15,5 C 17,2 C 17,2 C 61 % 0 lf 1011,2 hPa 0,0 l/m 2 min 0 min 316 W/m 22,5 km/h (4 Bft) 95,74 %
25.04.2018 16:24 15,6 C 17,2 C 17,2 C 61 % 0 lf 1011,1 hPa 0,0 l/m 2 min 0 min 326 W/m 24,8 km/h (4 Bft) 95,74 %
25.04.2018 16:26 15,6 C 17,2 C 17,2 C 60 % 0 lf 1011,1 hPa 0,0 l/m 2 min 0 min 339 W/m 24,8 km/h (4 Bft) 93,48 %
25.04.2018 16:28 15,6 C 17,2 C 17,2 C 60 % 0 lf 1011,2 hPa 0,0 l/m 2 min 0 min 311 W/m 31,5 km/h (5 Bft) 95,74 %
25.04.2018 16:30 15,6 C 16,7 C 16,7 C 60 % 0 lf 1011,2 hPa 0,0 l/m 0 min 0 min 267 W/m 29,3 km/h (5 Bft) 93,62 %
25.04.2018 16:32 15,6 C 17,2 C 17,2 C 61 % 0 lf 1011,2 hPa 0,0 l/m 0 min 0 min 250 W/m 27,0 km/h (4 Bft) 93,62 %
25.04.2018 16:34 15,6 C 17,2 C 17,2 C 60 % 0 lf 1011,2 hPa 0,0 l/m 0 min 0 min 250 W/m 29,3 km/h (5 Bft) 95,74 %
25.04.2018 16:36 15,6 C 16,7 C 17,2 C 60 % 0 lf 1011,4 hPa 0,0 l/m 0 min 0 min 265 W/m 40,6 km/h (6 Bft) 93,62 %
25.04.2018 16:38 15,6 C 16,1 C 16,7 C 60 % 0 lf 1011,1 hPa 0,0 l/m 0 min 0 min 236 W/m 31,5 km/h (5 Bft) 95,65 %
25.04.2018 16:40 15,6 C 16,1 C 16,7 C 61 % 0 lf 1011,1 hPa 0,0 l/m 0 min 0 min 234 W/m 22,5 km/h (4 Bft) 93,62 %
25.04.2018 16:42 15,6 C 16,7 C 16,7 C 62 % 0 lf 1011,1 hPa 0,0 l/m 0 min 0 min 232 W/m 36,0 km/h (5 Bft) 93,62 %
25.04.2018 16:44 15,6 C 16,7 C 16,7 C 61 % 0 lf 1011,0 hPa 0,0 l/m 0 min 0 min 277 W/m 24,8 km/h (4 Bft) 93,62 %
25.04.2018 16:46 15,6 C 17,2 C 17,8 C 61 % 0 lf 1011,0 hPa 0,0 l/m 2 min 0 min 368 W/m 27,0 km/h (4 Bft) 95,74 %
25.04.2018 16:48 15,7 C 17,8 C 18,9 C 61 % 0 lf 1011,0 hPa 0,0 l/m 2 min 0 min 583 W/m 33,8 km/h (5 Bft) 97,87 %
25.04.2018 16:50 15,8 C 17,8 C 18,9 C 62 % 0 lf 1011,0 hPa 0,0 l/m 2 min 0 min 762 W/m 40,6 km/h (6 Bft) 95,65 %
25.04.2018 16:52 15,9 C 17,8 C 18,3 C 61 % 0 lf 1011,0 hPa 0,0 l/m 2 min 0 min 738 W/m 24,8 km/h (4 Bft) 97,87 %
25.04.2018 16:54 16,1 C 18,3 C 18,3 C 61 % 0 lf 1010,9 hPa 0,0 l/m 2 min 0 min 717 W/m 24,8 km/h (4 Bft) 95,74 %
25.04.2018 16:56 16,2 C 18,3 C 18,3 C 61 % 0 lf 1010,9 hPa 0,0 l/m 2 min 0 min 616 W/m 24,8 km/h (4 Bft) 97,87 %
25.04.2018 16:58 16,3 C 18,3 C 18,3 C 61 % 0 lf 1011,0 hPa 0,0 l/m 2 min 0 min 387 W/m 27,0 km/h (4 Bft) 97,87 %
25.04.2018 17:00 16,4 C 18,3 C 18,3 C 60 % 0 lf 1010,9 hPa 0,0 l/m 2 min 0 min 689 W/m 27,0 km/h (4 Bft) 100,00 %
25.04.2018 17:02 16,6 C 17,8 C 17,2 C 60 % 0 lf 1011,0 hPa 0,0 l/m 2 min 0 min 533 W/m 27,0 km/h (4 Bft) 97,87 %
25.04.2018 17:04 16,6 C 17,8 C 17,2 C 59 % 0 lf 1011,0 hPa 0,0 l/m 0 min 0 min 218 W/m 24,8 km/h (4 Bft) 100,00 %
25.04.2018 17:06 16,6 C 17,2 C 16,7 C 59 % 0 lf 1011,0 hPa 0,0 l/m 0 min 0 min 205 W/m 22,5 km/h (4 Bft) 91,49 %
25.04.2018 17:08 16,6 C 17,2 C 16,7 C 60 % 0 lf 1011,1 hPa 0,0 l/m 0 min 0 min 217 W/m 29,3 km/h (5 Bft) 93,62 %
25.04.2018 17:10 16,5 C 16,7 C 16,7 C 58 % 0 lf 1011,0 hPa 0,0 l/m 0 min 0 min 221 W/m 20,3 km/h (4 Bft) 95,74 %
25.04.2018 17:12 16,4 C 16,7 C 16,7 C 59 % 0 lf 1011,0 hPa 0,0 l/m 0 min 0 min 207 W/m 22,5 km/h (4 Bft) 93,48 %
25.04.2018 17:14 16,3 C 16,1 C 16,1 C 57 % 0 lf 1010,8 hPa 0,0 l/m 0 min 0 min 178 W/m 29,3 km/h (5 Bft) 95,74 %
25.04.2018 17:16 16,1 C 16,1 C 15,6 C 57 % 0 lf 1010,8 hPa 0,0 l/m 0 min 0 min 173 W/m 33,8 km/h (5 Bft) 93,62 %
25.04.2018 17:18 16,0 C 15,6 C 15,6 C 57 % 0 lf 1010,8 hPa 0,0 l/m 0 min 0 min 190 W/m 20,3 km/h (4 Bft) 95,74 %
25.04.2018 17:20 15,9 C 16,1 C 15,6 C 60 % 0 lf 1010,8 hPa 0,0 l/m 0 min 0 min 211 W/m 15,8 km/h (3 Bft) 95,74 %
25.04.2018 17:22 15,8 C 16,1 C 16,1 C 61 % 0 lf 1010,8 hPa 0,0 l/m 0 min 0 min 233 W/m 31,5 km/h (5 Bft) 95,74 %
25.04.2018 17:24 15,8 C 16,7 C 16,1 C 60 % 0 lf 1010,8 hPa 0,0 l/m 2 min 0 min 246 W/m 29,3 km/h (5 Bft) 95,65 %
25.04.2018 17:26 15,7 C 16,1 C 16,1 C 59 % 0 lf 1010,8 hPa 0,0 l/m 0 min 0 min 206 W/m 36,0 km/h (5 Bft) 91,49 %
25.04.2018 17:28 15,7 C 16,1 C 15,6 C 58 % 0 lf 1010,8 hPa 0,0 l/m 0 min 0 min 181 W/m 31,5 km/h (5 Bft) 95,74 %
25.04.2018 17:30 15,6 C 16,1 C 15,6 C 58 % 0 lf 1010,9 hPa 0,0 l/m 0 min 0 min 180 W/m 29,3 km/h (5 Bft) 95,74 %
25.04.2018 17:32 15,6 C 16,1 C 15,6 C 59 % 0 lf 1010,9 hPa 0,0 l/m 0 min 0 min 223 W/m 24,8 km/h (4 Bft) 93,62 %
25.04.2018 17:34 15,5 C 16,1 C 15,6 C 60 % 0 lf 1010,9 hPa 0,0 l/m 0 min 0 min 212 W/m 18,0 km/h (3 Bft) 95,74 %
25.04.2018 17:36 15,5 C 16,1 C 15,6 C 59 % 0 lf 1010,9 hPa 0,0 l/m 0 min 0 min 202 W/m 29,3 km/h (5 Bft) 95,65 %
25.04.2018 17:38 15,5 C 16,1 C 16,1 C 59 % 0 lf 1010,9 hPa 0,0 l/m 0 min 0 min 216 W/m 27,0 km/h (4 Bft) 93,62 %
25.04.2018 17:40 15,4 C 16,1 C 16,1 C 60 % 0 lf 1010,9 hPa 0,0 l/m 2 min 0 min 229 W/m 33,8 km/h (5 Bft) 95,74 %
25.04.2018 17:42 15,4 C 16,1 C 16,1 C 61 % 0 lf 1010,8 hPa 0,0 l/m 2 min 0 min 230 W/m 27,0 km/h (4 Bft) 93,62 %
25.04.2018 17:44 15,4 C 16,1 C 15,6 C 63 % 0 lf 1010,8 hPa 0,0 l/m 2 min 0 min 229 W/m 33,8 km/h (5 Bft) 97,87 %
25.04.2018 17:46 15,4 C 16,1 C 15,6 C 63 % 0 lf 1010,9 hPa 0,0 l/m 2 min 0 min 231 W/m 29,3 km/h (5 Bft) 97,87 %
25.04.2018 17:48 15,4 C 15,6 C 15,0 C 63 % 0 lf 1010,8 hPa 0,0 l/m 0 min 0 min 167 W/m 27,0 km/h (4 Bft) 97,83 %
25.04.2018 17:50 15,3 C 15,6 C 15,0 C 63 % 0 lf 1010,8 hPa 0,0 l/m 0 min 0 min 165 W/m 20,3 km/h (4 Bft) 97,87 %
25.04.2018 17:52 15,3 C 15,6 C 15,0 C 64 % 0 lf 1010,8 hPa 0,0 l/m 0 min 0 min 173 W/m 20,3 km/h (4 Bft) 93,62 %
25.04.2018 17:54 15,2 C 15,6 C 15,0 C 63 % 0 lf 1010,8 hPa 0,0 l/m 0 min 0 min 179 W/m 20,3 km/h (4 Bft) 97,87 %
25.04.2018 17:56 15,2 C 15,6 C 15,0 C 64 % 0 lf 1010,8 hPa 0,0 l/m 0 min 0 min 168 W/m 22,5 km/h (4 Bft) 100,00 %
25.04.2018 17:58 15,2 C 15,6 C 15,0 C 64 % 0 lf 1010,7 hPa 0,0 l/m 0 min 0 min 162 W/m 20,3 km/h (4 Bft) 97,87 %
25.04.2018 18:00 15,1 C 15,6 C 15,0 C 65 % 0 lf 1010,7 hPa 0,0 l/m 0 min 0 min 160 W/m 18,0 km/h (3 Bft) 100,00 %
25.04.2018 18:02 15,1 C 15,6 C 15,0 C 65 % 0 lf 1010,8 hPa 0,0 l/m 0 min 0 min 159 W/m 20,3 km/h (4 Bft) 95,74 %
25.04.2018 18:04 15,1 C 15,6 C 15,0 C 65 % 0 lf 1010,8 hPa 0,0 l/m 0 min 0 min 152 W/m 13,5 km/h (3 Bft) 97,87 %
25.04.2018 18:08 15,0 C 15,6 C 15,0 C 65 % 0 lf 1010,7 hPa 0,0 l/m 0 min 0 min 152 W/m 24,8 km/h (4 Bft) 98,95 %
25.04.2018 18:10 15,0 C 15,6 C 15,0 C 66 % 0 lf 1010,8 hPa 0,0 l/m 0 min 0 min 170 W/m 13,5 km/h (3 Bft) 100,00 %
25.04.2018 18:12 15,0 C 15,6 C 15,0 C 67 % 0 lf 1010,8 hPa 0,0 l/m 0 min 0 min 155 W/m 22,5 km/h (4 Bft) 100,00 %
25.04.2018 18:14 15,0 C 15,6 C 15,0 C 67 % 0 lf 1010,8 hPa 0,0 l/m 0 min 0 min 163 W/m 13,5 km/h (3 Bft) 100,00 %
25.04.2018 18:16 15,0 C 15,6 C 15,0 C 67 % 0 lf 1010,8 hPa 0,0 l/m 0 min 0 min 164 W/m 18,0 km/h (3 Bft) 100,00 %
25.04.2018 18:18 15,0 C 15,6 C 15,0 C 67 % 0 lf 1010,9 hPa 0,0 l/m 0 min 0 min 154 W/m 15,8 km/h (3 Bft) 100,00 %
25.04.2018 18:20 14,9 C 15,6 C 15,0 C 66 % 0 lf 1010,9 hPa 0,0 l/m 0 min 0 min 147 W/m 20,3 km/h (4 Bft) 100,00 %
25.04.2018 18:22 14,9 C 15,6 C 15,0 C 67 % 0 lf 1010,8 hPa 0,0 l/m 0 min 0 min 136 W/m 24,8 km/h (4 Bft) 95,65 %
25.04.2018 18:24 14,9 C 15,0 C 14,4 C 66 % 0 lf 1010,8 hPa 0,0 l/m 0 min 0 min 118 W/m 18,0 km/h (3 Bft) 100,00 %
25.04.2018 18:26 14,9 C 15,0 C 14,4 C 66 % 0 lf 1010,9 hPa 0,0 l/m 0 min 0 min 106 W/m 29,3 km/h (5 Bft) 91,49 %
25.04.2018 18:28 14,8 C 15,0 C 14,4 C 66 % 0 lf 1010,9 hPa 0,0 l/m 0 min 0 min 95 W/m 15,8 km/h (3 Bft) 97,87 %
25.04.2018 18:30 14,8 C 15,0 C 14,4 C 67 % 0 lf 1011,0 hPa 0,0 l/m 0 min 0 min 84 W/m 22,5 km/h (4 Bft) 100,00 %
25.04.2018 18:32 14,7 C 14,4 C 13,9 C 66 % 0 lf 1011,0 hPa 0,0 l/m 0 min 0 min 77 W/m 18,0 km/h (3 Bft) 100,00 %
25.04.2018 18:34 14,7 C 14,4 C 13,9 C 66 % 0 lf 1011,0 hPa 0,0 l/m 0 min 0 min 79 W/m 22,5 km/h (4 Bft) 100,00 %
25.04.2018 18:36 14,7 C 14,4 C 13,9 C 66 % 0 lf 1010,9 hPa 0,0 l/m 0 min 0 min 94 W/m 18,0 km/h (3 Bft) 97,87 %
25.04.2018 18:38 14,6 C 14,4 C 13,9 C 66 % 0 lf 1010,9 hPa 0,0 l/m 0 min 0 min 126 W/m 27,0 km/h (4 Bft) 100,00 %
25.04.2018 18:40 14,6 C 14,4 C 13,9 C 66 % 0 lf 1010,9 hPa 0,0 l/m 0 min 0 min 113 W/m 20,3 km/h (4 Bft) 100,00 %
25.04.2018 18:42 14,6 C 14,4 C 14,4 C 66 % 0 lf 1010,9 hPa 0,0 l/m 0 min 0 min 124 W/m 24,8 km/h (4 Bft) 97,87 %
25.04.2018 18:44 14,6 C 15,0 C 14,4 C 66 % 0 lf 1010,9 hPa 0,0 l/m 0 min 0 min 141 W/m 22,5 km/h (4 Bft) 97,87 %
25.04.2018 18:46 14,6 C 15,0 C 14,4 C 66 % 0 lf 1010,8 hPa 0,0 l/m 2 min 0 min 186 W/m 18,0 km/h (3 Bft) 97,83 %
25.04.2018 18:48 14,6 C 15,6 C 15,0 C 66 % 0 lf 1010,7 hPa 0,0 l/m 2 min 0 min 162 W/m 31,5 km/h (5 Bft) 97,87 %
25.04.2018 18:50 14,6 C 15,6 C 15,0 C 66 % 0 lf 1010,7 hPa 0,0 l/m 2 min 0 min 196 W/m 15,8 km/h (3 Bft) 100,00 %
25.04.2018 18:52 14,6 C 15,6 C 15,0 C 66 % 0 lf 1010,6 hPa 0,0 l/m 2 min 0 min 167 W/m 11,3 km/h (2 Bft) 100,00 %
25.04.2018 18:54 14,7 C 15,6 C 15,0 C 67 % 0 lf 1010,6 hPa 0,0 l/m 2 min 0 min 236 W/m 20,3 km/h (4 Bft) 97,87 %
25.04.2018 18:56 14,7 C 15,6 C 15,0 C 66 % 0 lf 1010,6 hPa 0,0 l/m 2 min 0 min 182 W/m 18,0 km/h (3 Bft) 97,87 %
25.04.2018 18:58 14,7 C 15,6 C 14,4 C 66 % 0 lf 1010,7 hPa 0,0 l/m 2 min 0 min 245 W/m 15,8 km/h (3 Bft) 97,83 %
25.04.2018 19:00 14,7 C 15,6 C 14,4 C 65 % 0 lf 1010,7 hPa 0,0 l/m 0 min 0 min 125 W/m 20,3 km/h (4 Bft) 97,87 %
25.04.2018 19:02 14,8 C 15,0 C 13,9 C 65 % 0 lf 1010,7 hPa 0,0 l/m 0 min 0 min 89 W/m 18,0 km/h (3 Bft) 100,00 %
25.04.2018 19:04 14,8 C 15,0 C 13,9 C 66 % 0 lf 1010,8 hPa 0,0 l/m 0 min 0 min 86 W/m 18,0 km/h (3 Bft) 97,87 %
25.04.2018 19:06 14,8 C 14,4 C 13,9 C 66 % 0 lf 1010,8 hPa 0,0 l/m 0 min 0 min 81 W/m 13,5 km/h (3 Bft) 95,74 %
25.04.2018 19:08 14,8 C 14,4 C 13,9 C 66 % 0 lf 1010,7 hPa 0,0 l/m 0 min 0 min 97 W/m 15,8 km/h (3 Bft) 95,74 %
25.04.2018 19:10 14,8 C 14,4 C 13,3 C 65 % 0 lf 1010,7 hPa 0,0 l/m 0 min 0 min 93 W/m 13,5 km/h (3 Bft) 97,83 %
25.04.2018 19:12 14,7 C 14,4 C 13,3 C 65 % 0 lf 1010,7 hPa 0,0 l/m 0 min 0 min 105 W/m 18,0 km/h (3 Bft) 95,74 %
25.04.2018 19:14 14,7 C 14,4 C 13,9 C 66 % 0 lf 1010,7 hPa 0,0 l/m 0 min 0 min 103 W/m 9,0 km/h (2 Bft) 93,62 %
25.04.2018 19:16 14,7 C 14,4 C 13,3 C 65 % 0 lf 1010,7 hPa 0,0 l/m 0 min 0 min 89 W/m 13,5 km/h (3 Bft) 91,49 %
25.04.2018 19:18 14,7 C 14,4 C 13,3 C 66 % 0 lf 1010,8 hPa 0,0 l/m 0 min 0 min 85 W/m 24,8 km/h (4 Bft) 93,62 %
25.04.2018 19:20 14,6 C 14,4 C 13,3 C 66 % 0 lf 1010,7 hPa 0,0 l/m 0 min 0 min 82 W/m 9,0 km/h (2 Bft) 93,62 %
25.04.2018 19:22 14,6 C 14,4 C 13,3 C 66 % 0 lf 1010,7 hPa 0,0 l/m 0 min 0 min 71 W/m 13,5 km/h (3 Bft) 93,48 %
25.04.2018 19:24 14,6 C 14,4 C 13,3 C 66 % 0 lf 1010,8 hPa 0,0 l/m 0 min 0 min 65 W/m 6,8 km/h (2 Bft) 93,62 %
25.04.2018 19:26 14,5 C 13,9 C 13,3 C 66 % 0 lf 1010,8 hPa 0,0 l/m 0 min 0 min 61 W/m 15,8 km/h (3 Bft) 89,36 %
25.04.2018 19:28 14,4 C 13,9 C 13,3 C 66 % 0 lf 1010,8 hPa 0,0 l/m 0 min 0 min 58 W/m 9,0 km/h (2 Bft) 91,49 %
25.04.2018 19:30 14,4 C 13,9 C 13,3 C 66 % 0 lf 1010,8 hPa 0,0 l/m 0 min 0 min 49 W/m 18,0 km/h (3 Bft) 93,62 %
25.04.2018 19:32 14,4 C 13,9 C 12,8 C 67 % 0 lf 1010,7 hPa 0,0 l/m 0 min 0 min 49 W/m 9,0 km/h (2 Bft) 93,48 %
25.04.2018 19:34 14,3 C 13,9 C 12,8 C 67 % 0 lf 1010,7 hPa 0,0 l/m 0 min 0 min 49 W/m 11,3 km/h (2 Bft) 89,36 %
25.04.2018 19:36 14,3 C 13,9 C 12,8 C 66 % 0 lf 1010,7 hPa 0,0 l/m 0 min 0 min 48 W/m 11,3 km/h (2 Bft) 91,49 %
25.04.2018 19:38 14,2 C 13,9 C 12,8 C 67 % 0 lf 1010,7 hPa 0,0 l/m 0 min 0 min 44 W/m 11,3 km/h (2 Bft) 93,62 %
25.04.2018 19:40 14,2 C 13,3 C 12,8 C 67 % 0 lf 1010,7 hPa 0,0 l/m 0 min 0 min 39 W/m 11,3 km/h (2 Bft) 93,62 %
25.04.2018 19:42 14,2 C 13,3 C 12,8 C 67 % 0 lf 1010,7 hPa 0,0 l/m 0 min 0 min 36 W/m 6,8 km/h (2 Bft) 93,62 %
25.04.2018 19:44 14,2 C 13,3 C 12,8 C 67 % 0 lf 1010,7 hPa 0,0 l/m 0 min 0 min 33 W/m 11,3 km/h (2 Bft) 93,48 %
25.04.2018 19:46 14,2 C 13,3 C 12,8 C 67 % 1 lf 1010,7 hPa 0,0 l/m 0 min 0 min 28 W/m 11,3 km/h (2 Bft) 89,36 %
25.04.2018 19:48 14,2 C 13,3 C 12,2 C 67 % 0 lf 1010,8 hPa 0,0 l/m 0 min 0 min 26 W/m 18,0 km/h (3 Bft) 91,49 %
25.04.2018 19:50 14,1 C 13,3 C 12,2 C 67 % 0 lf 1010,7 hPa 0,0 l/m 0 min 0 min 24 W/m 11,3 km/h (2 Bft) 91,49 %
25.04.2018 19:52 14,0 C 13,3 C 12,2 C 67 % 0 lf 1010,7 hPa 0,0 l/m 0 min 0 min 23 W/m 15,8 km/h (3 Bft) 91,49 %
25.04.2018 19:54 13,9 C 13,3 C 12,2 C 68 % 1 lf 1010,7 hPa 0,0 l/m 0 min 0 min 25 W/m 15,8 km/h (3 Bft) 93,62 %
25.04.2018 19:56 13,9 C 13,3 C 12,2 C 68 % 0 lf 1010,7 hPa 0,0 l/m 0 min 0 min 28 W/m 18,0 km/h (3 Bft) 91,30 %
25.04.2018 19:58 13,8 C 13,3 C 12,2 C 68 % 0 lf 1010,6 hPa 0,0 l/m 0 min 0 min 30 W/m 9,0 km/h (2 Bft) 91,49 %
25.04.2018 20:00 13,8 C 13,3 C 12,2 C 68 % 1 lf 1010,6 hPa 0,0 l/m 0 min 0 min 35 W/m 11,3 km/h (2 Bft) 89,36 %
25.04.2018 20:02 13,8 C 13,3 C 12,2 C 68 % 1 lf 1010,6 hPa 0,0 l/m 0 min 0 min 38 W/m 9,0 km/h (2 Bft) 95,74 %
25.04.2018 20:04 13,8 C 13,3 C 12,2 C 68 % 0 lf 1010,6 hPa 0,0 l/m 0 min 0 min 35 W/m 9,0 km/h (2 Bft) 95,74 %
25.04.2018 20:06 13,7 C 13,3 C 12,2 C 69 % 0 lf 1010,6 hPa 0,0 l/m 0 min 0 min 35 W/m 11,3 km/h (2 Bft) 93,62 %
25.04.2018 20:08 13,7 C 13,3 C 12,2 C 69 % 0 lf 1010,7 hPa 0,0 l/m 0 min 0 min 33 W/m 13,5 km/h (3 Bft) 94,74 %
25.04.2018 20:10 13,7 C 13,3 C 12,2 C 69 % 0 lf 1010,6 hPa 0,0 l/m 0 min 0 min 35 W/m 11,3 km/h (2 Bft) 97,87 %
25.04.2018 20:12 13,7 C 13,3 C 12,2 C 69 % 0 lf 1010,7 hPa 0,0 l/m 2 min 0 min 37 W/m 6,8 km/h (2 Bft) 93,62 %
25.04.2018 20:14 13,7 C 12,8 C 12,2 C 69 % 0 lf 1010,8 hPa 0,0 l/m 2 min 0 min 34 W/m 9,0 km/h (2 Bft) 97,87 %
25.04.2018 20:16 13,6 C 12,8 C 12,2 C 69 % 0 lf 1010,7 hPa 0,0 l/m 2 min 0 min 32 W/m 6,8 km/h (2 Bft) 95,65 %
25.04.2018 20:18 13,6 C 12,8 C 12,2 C 70 % 0 lf 1010,8 hPa 0,0 l/m 2 min 0 min 32 W/m 11,3 km/h (2 Bft) 97,87 %
25.04.2018 20:20 13,6 C 12,8 C 12,2 C 70 % 0 lf 1010,8 hPa 0,0 l/m 2 min 0 min 35 W/m 15,8 km/h (3 Bft) 97,87 %
25.04.2018 20:22 13,6 C 12,8 C 12,2 C 69 % 0 lf 1010,8 hPa 0,0 l/m 2 min 0 min 36 W/m 13,5 km/h (3 Bft) 93,62 %
25.04.2018 20:24 13,5 C 12,8 C 12,2 C 69 % 0 lf 1010,8 hPa 0,0 l/m 2 min 0 min 34 W/m 27,0 km/h (4 Bft) 95,74 %
25.04.2018 20:26 13,5 C 12,8 C 12,2 C 69 % 0 lf 1010,8 hPa 0,0 l/m 2 min 0 min 29 W/m 24,8 km/h (4 Bft) 93,62 %
25.04.2018 20:28 13,4 C 12,8 C 12,2 C 69 % 0 lf 1010,8 hPa 0,0 l/m 2 min 0 min 23 W/m 18,0 km/h (3 Bft) 95,65 %
25.04.2018 20:30 13,4 C 12,8 C 11,7 C 69 % 0 lf 1010,8 hPa 0,0 l/m 0 min 0 min 18 W/m 11,3 km/h (2 Bft) 97,87 %
25.04.2018 20:32 13,4 C 12,8 C 11,7 C 69 % 0 lf 1010,8 hPa 0,0 l/m 0 min 0 min 15 W/m 15,8 km/h (3 Bft) 95,74 %
25.04.2018 20:34 13,3 C 12,8 C 11,7 C 69 % 0 lf 1010,8 hPa 0,0 l/m 0 min 0 min 12 W/m 13,5 km/h (3 Bft) 97,87 %
25.04.2018 20:36 13,3 C 12,8 C 11,7 C 69 % 0 lf 1010,8 hPa 0,0 l/m 0 min 0 min 12 W/m 13,5 km/h (3 Bft) 100,00 %
25.04.2018 20:38 13,3 C 12,2 C 11,7 C 69 % 0 lf 1010,9 hPa 0,0 l/m 0 min 0 min 11 W/m 11,3 km/h (2 Bft) 97,87 %
25.04.2018 20:40 13,2 C 12,2 C 11,7 C 69 % 0 lf 1010,8 hPa 0,0 l/m 0 min 0 min 9 W/m 11,3 km/h (2 Bft) 100,00 %
25.04.2018 20:42 13,2 C 12,2 C 11,7 C 69 % 0 lf 1010,8 hPa 0,0 l/m 0 min 0 min 8 W/m 11,3 km/h (2 Bft) 97,87 %
25.04.2018 20:44 13,2 C 12,2 C 11,1 C 69 % 0 lf 1010,8 hPa 0,0 l/m 0 min 0 min 6 W/m 11,3 km/h (2 Bft) 100,00 %
25.04.2018 20:46 13,2 C 12,2 C 11,1 C 69 % 0 lf 1010,8 hPa 0,0 l/m 0 min 0 min 5 W/m 9,0 km/h (2 Bft) 100,00 %
25.04.2018 20:48 13,1 C 12,2 C 11,1 C 69 % 0 lf 1010,9 hPa 0,0 l/m 0 min 0 min 4 W/m 11,3 km/h (2 Bft) 97,87 %
25.04.2018 20:50 13,1 C 12,2 C 11,1 C 69 % 0 lf 1010,9 hPa 0,0 l/m 0 min 0 min 0 W/m 9,0 km/h (2 Bft) 97,87 %
25.04.2018 20:52 13,1 C 12,2 C 11,1 C 69 % 0 lf 1010,9 hPa 0,0 l/m 0 min 0 min 0 W/m 11,3 km/h (2 Bft) 97,83 %
25.04.2018 20:54 13,1 C 12,2 C 11,1 C 69 % 0 lf 1010,9 hPa 0,0 l/m 0 min 0 min 0 W/m 9,0 km/h (2 Bft) 97,87 %
25.04.2018 20:56 13,0 C 12,2 C 11,1 C 70 % 0 lf 1010,9 hPa 0,0 l/m 0 min 0 min 0 W/m 9,0 km/h (2 Bft) 100,00 %
25.04.2018 20:58 13,0 C 12,2 C 11,1 C 70 % 0 lf 1010,9 hPa 0,0 l/m 0 min 0 min 0 W/m 6,8 km/h (2 Bft) 100,00 %
25.04.2018 21:00 12,9 C 12,2 C 11,1 C 70 % 0 lf 1010,9 hPa 0,0 l/m 0 min 0 min 0 W/m 6,8 km/h (2 Bft) 100,00 %
25.04.2018 21:02 12,9 C 12,2 C 11,1 C 70 % 0 lf 1010,9 hPa 0,0 l/m 0 min 0 min 0 W/m 6,8 km/h (2 Bft) 100,00 %
25.04.2018 21:04 12,9 C 12,2 C 11,1 C 70 % 0 lf 1011,0 hPa 0,0 l/m 0 min 0 min 0 W/m 11,3 km/h (2 Bft) 97,83 %
25.04.2018 21:06 12,9 C 12,2 C 11,1 C 70 % 0 lf 1011,1 hPa 0,0 l/m 0 min 0 min 0 W/m 9,0 km/h (2 Bft) 95,74 %
25.04.2018 21:08 12,9 C 12,2 C 11,1 C 70 % 0 lf 1011,1 hPa 0,0 l/m 0 min 0 min 0 W/m 9,0 km/h (2 Bft) 97,87 %
25.04.2018 21:10 12,9 C 12,2 C 11,1 C 71 % 11 lf 1011,2 hPa 0,0 l/m 0 min 2 min 0 W/m 9,0 km/h (2 Bft) 97,87 %
25.04.2018 21:12 12,9 C 11,7 C 10,6 C 71 % 12 lf 1011,2 hPa 0,0 l/m 0 min 2 min 0 W/m 2,3 km/h (1 Bft) 100,00 %
25.04.2018 21:14 12,8 C 11,7 C 10,6 C 72 % 10 lf 1011,3 hPa 0,0 l/m 0 min 0 min 0 W/m 6,8 km/h (2 Bft) 97,83 %
25.04.2018 21:16 12,8 C 11,7 C 10,6 C 72 % 4 lf 1011,3 hPa 0,0 l/m 0 min 0 min 0 W/m 6,8 km/h (2 Bft) 97,87 %
25.04.2018 21:18 12,8 C 11,7 C 10,6 C 72 % 1 lf 1011,3 hPa 0,0 l/m 0 min 0 min 0 W/m 13,5 km/h (3 Bft) 97,87 %
25.04.2018 21:20 12,8 C 11,7 C 10,6 C 72 % 0 lf 1011,3 hPa 0,0 l/m 0 min 0 min 0 W/m 18,0 km/h (3 Bft) 97,87 %
25.04.2018 21:22 12,7 C 11,7 C 10,6 C 72 % 0 lf 1011,4 hPa 0,0 l/m 0 min 0 min 0 W/m 15,8 km/h (3 Bft) 93,62 %
25.04.2018 21:24 12,7 C 11,7 C 10,6 C 72 % 0 lf 1011,5 hPa 0,0 l/m 0 min 0 min 0 W/m 13,5 km/h (3 Bft) 93,62 %
25.04.2018 21:26 12,6 C 11,7 C 10,6 C 72 % 0 lf 1011,5 hPa 0,0 l/m 0 min 0 min 0 W/m 11,3 km/h (2 Bft) 95,65 %
25.04.2018 21:28 12,6 C 11,7 C 10,6 C 72 % 0 lf 1011,5 hPa 0,0 l/m 0 min 0 min 0 W/m 18,0 km/h (3 Bft) 95,74 %
25.04.2018 21:30 12,6 C 11,7 C 10,6 C 72 % 0 lf 1011,6 hPa 0,0 l/m 0 min 0 min 0 W/m 13,5 km/h (3 Bft) 97,87 %
25.04.2018 21:32 12,6 C 11,7 C 10,6 C 72 % 1 lf 1011,6 hPa 0,0 l/m 0 min 0 min 0 W/m 9,0 km/h (2 Bft) 97,87 %
25.04.2018 21:34 12,5 C 11,7 C 10,6 C 73 % 0 lf 1011,5 hPa 0,0 l/m 0 min 0 min 0 W/m 11,3 km/h (2 Bft) 95,74 %
25.04.2018 21:36 12,5 C 11,7 C 10,6 C 73 % 0 lf 1011,6 hPa 0,0 l/m 0 min 0 min 0 W/m 11,3 km/h (2 Bft) 95,74 %
25.04.2018 21:38 12,4 C 11,7 C 10,6 C 73 % 3 lf 1011,6 hPa 0,0 l/m 0 min 2 min 0 W/m 9,0 km/h (2 Bft) 97,83 %
25.04.2018 21:40 12,4 C 11,7 C 10,6 C 73 % 2 lf 1011,7 hPa 0,0 l/m 0 min 2 min 0 W/m 11,3 km/h (2 Bft) 97,87 %
25.04.2018 21:42 12,4 C 11,1 C 10,0 C 73 % 6 lf 1011,6 hPa 0,0 l/m 0 min 2 min 0 W/m 6,8 km/h (2 Bft) 91,49 %
25.04.2018 21:44 12,4 C 11,1 C 9,4 C 74 % 6 lf 1011,6 hPa 0,0 l/m 0 min 2 min 0 W/m 4,5 km/h (1 Bft) 95,74 %
25.04.2018 21:46 12,4 C 11,1 C 9,4 C 74 % 4 lf 1011,7 hPa 0,0 l/m 0 min 0 min 0 W/m 6,8 km/h (2 Bft) 100,00 %
25.04.2018 21:48 12,4 C 11,1 C 9,4 C 74 % 3 lf 1011,6 hPa 0,0 l/m 0 min 0 min 0 W/m 4,5 km/h (1 Bft) 95,74 %
25.04.2018 21:50 12,4 C 11,1 C 9,4 C 74 % 3 lf 1011,7 hPa 0,0 l/m 0 min 0 min 0 W/m 4,5 km/h (1 Bft) 97,83 %
25.04.2018 21:52 12,3 C 11,1 C 9,4 C 74 % 1 lf 1011,8 hPa 0,0 l/m 0 min 0 min 0 W/m 6,8 km/h (2 Bft) 100,00 %
25.04.2018 21:54 12,3 C 11,1 C 9,4 C 75 % 0 lf 1011,7 hPa 0,0 l/m 0 min 0 min 0 W/m 6,8 km/h (2 Bft) 100,00 %
25.04.2018 21:56 12,3 C 11,1 C 9,4 C 75 % 0 lf 1011,8 hPa 0,0 l/m 0 min 0 min 0 W/m 4,5 km/h (1 Bft) 100,00 %
25.04.2018 21:58 12,3 C 11,1 C 9,4 C 75 % 0 lf 1011,8 hPa 0,0 l/m 0 min 0 min 0 W/m 6,8 km/h (2 Bft) 100,00 %
25.04.2018 22:00 12,2 C 11,1 C 9,4 C 75 % 0 lf 1011,8 hPa 0,0 l/m 0 min 0 min 0 W/m 6,8 km/h (2 Bft) 95,74 %
25.04.2018 22:02 12,2 C 11,1 C 9,4 C 75 % 0 lf 1011,8 hPa 0,0 l/m 0 min 0 min 0 W/m 6,8 km/h (2 Bft) 97,83 %
25.04.2018 22:04 12,2 C 11,1 C 10,0 C 75 % 0 lf 1011,8 hPa 0,0 l/m 0 min 0 min 0 W/m 6,8 km/h (2 Bft) 97,87 %
25.04.2018 22:06 12,1 C 11,1 C 10,0 C 75 % 0 lf 1011,8 hPa 0,0 l/m 0 min 0 min 0 W/m 6,8 km/h (2 Bft) 100,00 %
25.04.2018 22:08 12,1 C 11,1 C 10,0 C 76 % 0 lf 1011,9 hPa 0,0 l/m 0 min 0 min 0 W/m 9,0 km/h (2 Bft) 100,00 %
25.04.2018 22:10 12,1 C 11,1 C 10,0 C 76 % 0 lf 1011,9 hPa 0,0 l/m 0 min 0 min 0 W/m 11,3 km/h (2 Bft) 97,87 %
25.04.2018 22:12 12,1 C 11,1 C 10,0 C 76 % 0 lf 1011,9 hPa 0,0 l/m 0 min 0 min 0 W/m 11,3 km/h (2 Bft) 100,00 %
25.04.2018 22:14 12,0 C 11,1 C 10,0 C 76 % 0 lf 1011,9 hPa 0,0 l/m 0 min 0 min 0 W/m 9,0 km/h (2 Bft) 97,83 %
25.04.2018 22:16 12,0 C 11,1 C 10,0 C 76 % 0 lf 1011,9 hPa 0,0 l/m 0 min 0 min 0 W/m 11,3 km/h (2 Bft) 95,83 %
25.04.2018 22:18 11,9 C 11,1 C 10,0 C 76 % 0 lf 1012,0 hPa 0,0 l/m 0 min 0 min 0 W/m 15,8 km/h (3 Bft) 97,87 %
25.04.2018 22:20 11,9 C 11,1 C 10,0 C 76 % 0 lf 1012,0 hPa 0,0 l/m 0 min 0 min 0 W/m 13,5 km/h (3 Bft) 97,87 %
25.04.2018 22:22 11,9 C 11,1 C 10,0 C 75 % 0 lf 1012,1 hPa 0,0 l/m 0 min 0 min 0 W/m 13,5 km/h (3 Bft) 95,74 %
25.04.2018 22:24 11,8 C 11,1 C 10,0 C 75 % 0 lf 1012,1 hPa 0,0 l/m 0 min 0 min 0 W/m 13,5 km/h (3 Bft) 97,83 %
25.04.2018 22:26 11,8 C 11,1 C 9,4 C 75 % 0 lf 1012,1 hPa 0,0 l/m 0 min 0 min 0 W/m 13,5 km/h (3 Bft) 95,74 %
25.04.2018 22:28 11,8 C 11,1 C 9,4 C 75 % 0 lf 1012,1 hPa 0,0 l/m 0 min 0 min 0 W/m 15,8 km/h (3 Bft) 95,74 %
25.04.2018 22:30 11,8 C 11,1 C 9,4 C 76 % 0 lf 1012,1 hPa 0,0 l/m 0 min 0 min 0 W/m 13,5 km/h (3 Bft) 97,87 %
25.04.2018 22:32 11,7 C 10,6 C 9,4 C 76 % 0 lf 1012,1 hPa 0,0 l/m 0 min 0 min 0 W/m 13,5 km/h (3 Bft) 93,62 %
25.04.2018 22:34 11,7 C 10,6 C 9,4 C 76 % 0 lf 1012,1 hPa 0,0 l/m 0 min 0 min 0 W/m 15,8 km/h (3 Bft) 91,49 %
25.04.2018 22:36 11,7 C 10,6 C 9,4 C 76 % 0 lf 1012,1 hPa 0,0 l/m 0 min 0 min 0 W/m 15,8 km/h (3 Bft) 95,65 %
25.04.2018 22:38 11,6 C 10,6 C 9,4 C 76 % 0 lf 1012,2 hPa 0,0 l/m 0 min 0 min 0 W/m 11,3 km/h (2 Bft) 93,62 %
25.04.2018 22:40 11,6 C 10,6 C 9,4 C 76 % 0 lf 1012,1 hPa 0,0 l/m 0 min 0 min 0 W/m 11,3 km/h (2 Bft) 93,62 %
25.04.2018 22:42 11,6 C 10,6 C 9,4 C 76 % 0 lf 1012,2 hPa 0,0 l/m 0 min 0 min 0 W/m 13,5 km/h (3 Bft) 93,62 %
25.04.2018 22:44 11,5 C 10,6 C 9,4 C 76 % 0 lf 1012,2 hPa 0,0 l/m 0 min 0 min 0 W/m 13,5 km/h (3 Bft) 91,49 %
25.04.2018 22:46 11,5 C 10,0 C 8,9 C 76 % 0 lf 1012,3 hPa 0,0 l/m 0 min 0 min 0 W/m 13,5 km/h (3 Bft) 89,36 %
25.04.2018 22:48 11,4 C 10,0 C 9,4 C 76 % 0 lf 1012,3 hPa 0,0 l/m 0 min 0 min 0 W/m 15,8 km/h (3 Bft) 93,48 %
25.04.2018 22:50 11,4 C 10,0 C 9,4 C 76 % 0 lf 1012,3 hPa 0,0 l/m 0 min 0 min 0 W/m 15,8 km/h (3 Bft) 89,36 %
25.04.2018 22:52 11,3 C 10,0 C 8,9 C 76 % 0 lf 1012,3 hPa 0,0 l/m 0 min 0 min 0 W/m 15,8 km/h (3 Bft) 91,49 %
25.04.2018 22:54 11,3 C 10,0 C 8,9 C 76 % 0 lf 1012,3 hPa 0,0 l/m 0 min 0 min 0 W/m 13,5 km/h (3 Bft) 91,49 %
25.04.2018 22:56 11,3 C 10,0 C 8,9 C 76 % 0 lf 1012,3 hPa 0,0 l/m 0 min 0 min 0 W/m 13,5 km/h (3 Bft) 89,36 %
25.04.2018 22:58 11,2 C 10,0 C 8,9 C 76 % 0 lf 1012,3 hPa 0,0 l/m 0 min 0 min 0 W/m 13,5 km/h (3 Bft) 91,49 %
25.04.2018 23:00 11,2 C 10,0 C 8,9 C 76 % 0 lf 1012,3 hPa 0,0 l/m 0 min 0 min 0 W/m 9,0 km/h (2 Bft) 91,30 %
25.04.2018 23:02 11,2 C 10,0 C 8,9 C 76 % 0 lf 1012,3 hPa 0,0 l/m 0 min 0 min 0 W/m 15,8 km/h (3 Bft) 93,75 %
25.04.2018 23:04 11,1 C 10,0 C 8,9 C 76 % 0 lf 1012,2 hPa 0,0 l/m 0 min 0 min 0 W/m 13,5 km/h (3 Bft) 93,48 %
25.04.2018 23:08 11,0 C 10,0 C 8,9 C 75 % 0 lf 1012,3 hPa 0,0 l/m 0 min 0 min 0 W/m 18,0 km/h (3 Bft) 94,68 %
25.04.2018 23:10 11,0 C 10,0 C 8,9 C 75 % 0 lf 1012,2 hPa 0,0 l/m 0 min 0 min 0 W/m 24,8 km/h (4 Bft) 95,74 %
25.04.2018 23:12 10,9 C 10,0 C 8,9 C 74 % 0 lf 1012,3 hPa 0,0 l/m 0 min 0 min 0 W/m 18,0 km/h (3 Bft) 95,74 %
25.04.2018 23:14 10,9 C 10,0 C 8,9 C 74 % 0 lf 1012,2 hPa 0,0 l/m 0 min 0 min 0 W/m 15,8 km/h (3 Bft) 89,36 %
25.04.2018 23:16 10,9 C 10,0 C 8,9 C 73 % 0 lf 1012,2 hPa 0,0 l/m 0 min 0 min 0 W/m 11,3 km/h (2 Bft) 95,65 %
25.04.2018 23:18 10,8 C 10,0 C 8,9 C 73 % 0 lf 1012,2 hPa 0,0 l/m 0 min 0 min 0 W/m 15,8 km/h (3 Bft) 93,62 %
25.04.2018 23:20 10,8 C 10,0 C 8,9 C 73 % 0 lf 1012,2 hPa 0,0 l/m 0 min 0 min 0 W/m 20,3 km/h (4 Bft) 89,36 %
25.04.2018 23:22 10,8 C 10,0 C 8,9 C 72 % 0 lf 1012,2 hPa 0,0 l/m 0 min 0 min 0 W/m 15,8 km/h (3 Bft) 95,74 %
25.04.2018 23:24 10,8 C 10,0 C 8,9 C 72 % 0 lf 1012,3 hPa 0,0 l/m 0 min 0 min 0 W/m 15,8 km/h (3 Bft) 93,62 %
25.04.2018 23:26 10,7 C 10,0 C 8,9 C 72 % 0 lf 1012,3 hPa 0,0 l/m 0 min 0 min 0 W/m 13,5 km/h (3 Bft) 93,62 %
25.04.2018 23:28 10,7 C 10,0 C 8,9 C 72 % 0 lf 1012,3 hPa 0,0 l/m 0 min 0 min 0 W/m 15,8 km/h (3 Bft) 95,65 %
25.04.2018 23:30 10,7 C 10,0 C 8,9 C 72 % 0 lf 1012,3 hPa 0,0 l/m 0 min 0 min 0 W/m 18,0 km/h (3 Bft) 93,62 %
25.04.2018 23:32 10,7 C 10,0 C 8,9 C 72 % 0 lf 1012,3 hPa 0,0 l/m 0 min 0 min 0 W/m 13,5 km/h (3 Bft) 95,74 %
25.04.2018 23:34 10,7 C 10,0 C 8,9 C 72 % 0 lf 1012,3 hPa 0,0 l/m 0 min 0 min 0 W/m 22,5 km/h (4 Bft) 95,74 %
25.04.2018 23:36 10,6 C 10,0 C 8,9 C 72 % 0 lf 1012,3 hPa 0,0 l/m 0 min 0 min 0 W/m 20,3 km/h (4 Bft) 95,74 %
25.04.2018 23:38 10,6 C 10,0 C 8,3 C 71 % 0 lf 1012,3 hPa 0,0 l/m 0 min 0 min 0 W/m 20,3 km/h (4 Bft) 93,62 %
25.04.2018 23:40 10,6 C 10,0 C 8,3 C 72 % 0 lf 1012,3 hPa 0,0 l/m 0 min 0 min 0 W/m 20,3 km/h (4 Bft) 97,83 %
25.04.2018 23:42 10,6 C 10,0 C 8,3 C 72 % 0 lf 1012,3 hPa 0,0 l/m 0 min 0 min 0 W/m 18,0 km/h (3 Bft) 95,74 %
25.04.2018 23:44 10,5 C 10,0 C 8,9 C 71 % 0 lf 1012,4 hPa 0,0 l/m 0 min 0 min 0 W/m 24,8 km/h (4 Bft) 95,74 %
25.04.2018 23:46 10,5 C 10,0 C 8,9 C 71 % 0 lf 1012,3 hPa 0,0 l/m 0 min 0 min 0 W/m 18,0 km/h (3 Bft) 95,74 %
25.04.2018 23:48 10,5 C 9,4 C 8,3 C 71 % 0 lf 1012,4 hPa 0,0 l/m 0 min 0 min 0 W/m 22,5 km/h (4 Bft) 97,87 %
25.04.2018 23:50 10,4 C 9,4 C 8,3 C 71 % 0 lf 1012,3 hPa 0,0 l/m 0 min 0 min 0 W/m 20,3 km/h (4 Bft) 97,87 %
25.04.2018 23:52 10,4 C 9,4 C 8,3 C 71 % 0 lf 1012,3 hPa 0,0 l/m 0 min 0 min 0 W/m 22,5 km/h (4 Bft) 95,65 %
25.04.2018 23:54 10,4 C 9,4 C 8,3 C 71 % 0 lf 1012,3 hPa 0,0 l/m 0 min 0 min 0 W/m 20,3 km/h (4 Bft) 97,87 %
25.04.2018 23:56 10,4 C 9,4 C 8,3 C 71 % 0 lf 1012,3 hPa 0,0 l/m 0 min 0 min 0 W/m 22,5 km/h (4 Bft) 97,87 %
25.04.2018 23:58 10,4 C 9,4 C 8,3 C 71 % 0 lf 1012,3 hPa 0,0 l/m 0 min 0 min 0 W/m 20,3 km/h (4 Bft) 100,00 %
_ Min-Zeit 23:50 23:48 23:38 15:38 00:00 04:52 - - - - 00:04 04:08
Minimum _ 10,4 C 9,4 C 8,3 C 57 % 0 lf 1006,9 hPa - - - - 2,3 km/h (1 Bft) 87,23 %
_ Max-Zeit 14:42 13:30 15:20 08:30 06:52 23:44 07:34 12:07 06:52 14:26 06:00 01:10
Maximum _ 17,1 C 25,0 C 22,8 C 94 % 15 lf 1012,4 hPa 0,2 l/m 3 min 2 min 1076 W/m 47,3 km/h
W-SW (6 Bft)
100,00 %
Durchschnitt _ 14,3 C 15,2 C 13,7 C 75 % 2 lf 1009,6 hPa #0,8 l/m #5:09 h #1:40 h 288 W/m 22,6 km/h (4 Bft) 96,28 %
© 2018 W. Hausmann